M I D A S
Marine Information and Data Acquisition System
Tripno 1881 of the Zeeleeuw from 2010-05-19 05:32:55 to 2010-05-19 16:14:19
Back to CruiseResearch ActivitiesStationsMapUnderway DataData graphs

EquipmentUnitsComment
TimeDGPSUTC
LatitudeDGPSDM.mWGS84
LongitudeDGPSDM.mWGS84
TemperatureSBE03/SBE38deg celciusITS90
ConductivitySBE21S/mITS90
SalinitySBE21 Practical Salinity Units
ChlorophylAChelsea fluorimeterg/lCalibrated in Aceton
Missing or incorrect values are displayed as -999
Sea surface data collected by the RV Zeeleeuw from 2010-05-19 05:11:16 to 2010-05-19 16:22:19
                                                                                    Next 1000 lines
Time Latitude Longitude Temperature Conductivity Salinity ChlorophylA
2010-05-19 05:11:27 51°13.66 2°55.959 19.7231 0.061833 0.351925 -0.965744
2010-05-19 05:11:32 51°13.66 2°55.959 19.7238 0.061833 0.351919 -0.965744
2010-05-19 05:11:38 51°13.66 2°55.96 19.7201 0.061833 0.351925 -0.93092
2010-05-19 05:11:42 51°13.66 2°55.96 19.7203 0.061833 0.351925 -0.93092
2010-05-19 05:11:47 51°13.66 2°55.96 19.7211 0.061833 0.351931 -1.000568
2010-05-19 05:11:52 51°13.66 2°55.96 19.7222 0.061833 0.351931 -0.965744
2010-05-19 05:11:57 51°13.66 2°55.96 19.7216 0.061833 0.351931 -0.965744
2010-05-19 05:12:02 51°13.66 2°55.96 19.7214 0.061833 0.351925 -1.000568
2010-05-19 05:12:07 51°13.66 2°55.96 19.7231 0.061833 0.351937 -1.000568
2010-05-19 05:12:12 51°13.66 2°55.96 19.7252 0.061833 0.351937 -1.000568
2010-05-19 05:12:18 51°13.66 2°55.96 19.7265 0.061833 0.351937 -1.000568
2010-05-19 05:12:22 51°13.66 2°55.96 19.729 0.061833 0.351943 -0.965744
2010-05-19 05:12:27 51°13.66 2°55.96 19.7307 0.061833 0.351937 -1.000568
2010-05-19 05:12:32 51°13.66 2°55.96 19.7311 0.061833 0.351943 -0.965744
2010-05-19 05:12:38 51°13.66 2°55.96 19.7305 0.061833 0.351949 -0.965744
2010-05-19 05:12:43 51°13.66 2°55.96 19.7308 0.061833 0.351949 -0.965744
2010-05-19 05:12:47 51°13.66 2°55.96 19.7309 0.061833 0.351943 -1.000568
2010-05-19 05:12:52 51°13.66 2°55.96 19.7311 0.061833 0.351943 -0.965744
2010-05-19 05:12:57 51°13.66 2°55.96 19.7279 0.061833 0.351949 -1.000568
2010-05-19 05:13:03 51°13.66 2°55.96 19.726 0.061833 0.351949 -0.965744
2010-05-19 05:13:07 51°13.661 2°55.959 19.7258 0.061833 0.351955 -1.000568
2010-05-19 05:13:13 51°13.661 2°55.959 19.7252 0.061833 0.351955 -0.965744
2010-05-19 05:13:17 51°13.66 2°55.959 19.7239 0.061833 0.351955 -0.965744
2010-05-19 05:13:22 51°13.66 2°55.959 19.7245 0.061833 0.351961 -0.965744
2010-05-19 05:13:27 51°13.66 2°55.959 19.7259 0.061833 0.351961 -1.000568
2010-05-19 05:13:33 51°13.66 2°55.959 19.7265 0.061833 0.351961 -0.965744
2010-05-19 05:13:37 51°13.66 2°55.959 19.7294 0.061833 0.351967 -1.000568
2010-05-19 05:13:42 51°13.66 2°55.959 19.7309 0.061833 0.351967 -1.000568
2010-05-19 05:13:47 51°13.659 2°55.958 19.7312 0.061833 0.351967 -1.000568
2010-05-19 05:13:52 51°13.659 2°55.958 19.7267 0.061833 0.351967 -1.000568
2010-05-19 05:13:57 51°13.66 2°55.959 19.7252 0.061833 0.351973 -1.000568
2010-05-19 05:14:02 51°13.66 2°55.959 19.7234 0.061833 0.351967 -0.965744
2010-05-19 05:14:07 51°13.66 2°55.959 19.722 0.061833 0.351973 -0.965744
2010-05-19 05:14:12 51°13.66 2°55.959 19.7242 0.061833 0.351973 -0.965744
2010-05-19 05:14:17 51°13.66 2°55.959 19.7294 0.061833 0.351967 -1.000568
2010-05-19 05:14:22 51°13.66 2°55.959 19.7307 0.061833 0.351973 -0.965744
2010-05-19 05:14:28 51°13.661 2°55.959 19.7363 0.061833 0.351979 -0.965744
2010-05-19 05:14:32 51°13.66 2°55.959 19.7393 0.061833 0.351979 -0.965744
2010-05-19 05:14:37 51°13.66 2°55.959 19.7405 0.061833 0.351979 -0.965744
2010-05-19 05:14:42 51°13.66 2°55.959 19.7362 0.061833 0.351979 -0.965744
2010-05-19 05:14:43 51°13.66 2°55.959 19.7278 0.061833 0.351985 -1.000568
2010-05-19 05:14:43 51°13.66 2°55.959 19.7239 0.061833 0.351985 -1.000568
2010-05-19 05:14:43 51°13.66 2°55.959 19.7308 0.061833 0.351997 -0.965744
2010-05-19 05:14:43 51°13.66 2°55.959 19.7321 0.061833 0.351997 -1.000568
2010-05-19 05:14:43 51°13.66 2°55.959 19.7274 0.061833 0.351985 -0.965744
2010-05-19 05:14:43 51°13.66 2°55.959 19.7387 0.061833 0.351997 -1.000568
2010-05-19 05:14:43 51°13.66 2°55.959 19.7107 0.061833 0.351979 -0.965744
2010-05-19 05:14:43 51°13.66 2°55.959 19.7296 0.061833 0.351991 -1.000568
2010-05-19 05:14:43 51°13.66 2°55.959 19.7318 0.061833 0.351991 -1.000568
2010-05-19 05:14:43 51°13.66 2°55.959 19.7225 0.061833 0.351985 -1.000568
2010-05-19 05:14:43 51°13.66 2°55.959 19.7287 0.061833 0.351979 -0.965744
2010-05-19 05:14:43 51°13.66 2°55.959 19.7185 0.061833 0.351985 -0.965744
2010-05-19 05:15:47 51°13.66 2°55.959 19.7337 0.061833 0.351997 -1.000568
2010-05-19 05:15:52 51°13.66 2°55.959 19.7286 0.061833 0.351997 -0.965744
2010-05-19 05:15:57 51°13.66 2°55.959 19.7231 0.061833 0.351997 -1.000568
2010-05-19 05:16:02 51°13.66 2°55.959 19.7289 0.061833 0.351997 -0.965744
2010-05-19 05:16:07 51°13.66 2°55.959 19.7267 0.061833 0.352002 -0.965744
2010-05-19 05:16:12 51°13.66 2°55.959 19.739 0.061833 0.352008 -0.965744
2010-05-19 05:16:16 51°13.66 2°55.959 19.7408 0.061833 0.352008 -0.965744
2010-05-19 05:16:22 51°13.66 2°55.959 19.7418 0.061833 0.352008 -0.965744
2010-05-19 05:16:27 51°13.66 2°55.959 19.7364 0.061833 0.352002 -0.965744
2010-05-19 05:16:32 51°13.66 2°55.959 19.7309 0.061833 0.352008 -1.000568
2010-05-19 05:16:36 51°13.66 2°55.959 19.7311 0.061833 0.352008 -0.965744
2010-05-19 05:16:42 51°13.66 2°55.959 19.7265 0.061833 0.352008 -0.965744
2010-05-19 05:16:47 51°13.66 2°55.959 19.7227 0.061833 0.352014 -1.000568
2010-05-19 05:16:52 51°13.66 2°55.959 19.7199 0.061833 0.352014 -0.965744
2010-05-19 05:16:56 51°13.66 2°55.959 19.7162 0.061833 0.35202 -1.000568
2010-05-19 05:17:02 51°13.66 2°55.959 19.7138 0.061833 0.35202 -1.000568
2010-05-19 05:17:06 51°13.66 2°55.959 19.711 0.061833 0.352014 -0.965744
2010-05-19 05:17:12 51°13.66 2°55.959 19.7105 0.061833 0.352014 -0.965744
2010-05-19 05:17:16 51°13.66 2°55.959 19.7161 0.061833 0.35202 -1.000568
2010-05-19 05:17:21 51°13.66 2°55.959 19.7223 0.061833 0.35202 -1.000568
2010-05-19 05:17:26 51°13.66 2°55.959 19.725 0.061833 0.35202 -0.965744
2010-05-19 05:17:32 51°13.66 2°55.959 19.727 0.061833 0.352026 -0.965744
2010-05-19 05:17:36 51°13.66 2°55.959 19.7245 0.061833 0.352026 -0.965744
2010-05-19 05:17:41 51°13.66 2°55.959 19.7229 0.061833 0.352026 -1.000568
2010-05-19 05:17:46 51°13.66 2°55.959 19.7234 0.061833 0.352026 -1.000568
2010-05-19 05:17:52 51°13.66 2°55.959 19.7255 0.061833 0.352026 -1.000568
2010-05-19 05:17:56 51°13.66 2°55.959 19.7252 0.061833 0.352032 -1.000568
2010-05-19 05:18:01 51°13.66 2°55.959 19.7269 0.061833 0.352026 -0.965744
2010-05-19 05:18:06 51°13.66 2°55.959 19.7263 0.061833 0.352032 -0.965744
2010-05-19 05:18:12 51°13.66 2°55.959 19.7275 0.061833 0.352038 -0.965744
2010-05-19 05:18:16 51°13.66 2°55.959 19.7272 0.061833 0.352038 -0.965744
2010-05-19 05:18:21 51°13.66 2°55.959 19.7273 0.061833 0.352038 -1.000568
2010-05-19 05:18:26 51°13.66 2°55.959 19.7332 0.061833 0.352038 -0.965744
2010-05-19 05:18:32 51°13.66 2°55.959 19.7341 0.061833 0.352044 -1.000568
2010-05-19 05:18:36 51°13.66 2°55.959 19.7373 0.061833 0.352044 -1.000568
2010-05-19 05:18:41 51°13.66 2°55.959 19.7385 0.061833 0.352044 -1.000568
2010-05-19 05:18:46 51°13.66 2°55.959 19.7408 0.061833 0.352044 -0.965744
2010-05-19 05:18:51 51°13.659 2°55.958 19.7407 0.061833 0.35205 -1.000568
2010-05-19 05:18:56 51°13.658 2°55.958 19.7377 0.061833 0.35205 -1.000568
2010-05-19 05:19:01 51°13.658 2°55.958 19.7347 0.061833 0.352056 -0.965744
2010-05-19 05:19:05 51°13.659 2°55.958 19.7347 0.061833 0.352056 -1.000568
2010-05-19 05:19:10 51°13.659 2°55.958 19.7384 0.061833 0.352056 -1.000568
2010-05-19 05:19:16 51°13.659 2°55.958 19.7427 0.061833 0.352056 -0.965744
2010-05-19 05:19:20 51°13.659 2°55.958 19.7437 0.061833 0.352056 -0.965744
2010-05-19 05:19:25 51°13.659 2°55.959 19.7486 0.061833 0.352062 -1.000568
2010-05-19 05:19:30 51°13.659 2°55.96 19.7482 0.061833 0.352062 -1.000568
2010-05-19 05:19:35 51°13.659 2°55.96 19.737 0.061833 0.352068 -1.000568
2010-05-19 05:19:40 51°13.659 2°55.961 19.7321 0.061833 0.352062 -0.965744
2010-05-19 05:19:44 51°13.659 2°55.961 19.7309 0.061833 0.352062 -0.965744
2010-05-19 05:19:49 51°13.659 2°55.961 19.7309 0.061833 0.352068 -0.965744
2010-05-19 05:19:54 51°13.659 2°55.961 19.7329 0.061833 0.352068 -1.000568
2010-05-19 05:19:59 51°13.66 2°55.96 19.7323 0.061833 0.352062 -0.965744
2010-05-19 05:20:04 51°13.66 2°55.959 19.7317 0.061833 0.352068 -1.000568
2010-05-19 05:20:09 51°13.661 2°55.959 19.7312 0.061833 0.352068 -1.000568
2010-05-19 05:20:14 51°13.661 2°55.959 19.7302 0.061833 0.352074 -1.000568
2010-05-19 05:20:19 51°13.662 2°55.959 19.7256 0.061833 0.352074 -1.000568
2010-05-19 05:20:24 51°13.662 2°55.959 19.7251 0.061833 0.352074 -0.965744
2010-05-19 05:20:29 51°13.662 2°55.959 19.7264 0.061833 0.35208 -0.965744
2010-05-19 05:20:33 51°13.662 2°55.959 19.727 0.061833 0.35208 -1.000568
2010-05-19 05:20:39 51°13.662 2°55.959 19.7256 0.061833 0.35208 -1.000568
2010-05-19 05:20:43 51°13.663 2°55.959 19.7271 0.061833 0.352086 -0.965744
2010-05-19 05:20:49 51°13.663 2°55.959 19.728 0.061833 0.35208 -0.965744
2010-05-19 05:20:53 51°13.663 2°55.959 19.7318 0.061833 0.352086 -0.965744
2010-05-19 05:20:59 51°13.663 2°55.959 19.7425 0.061833 0.35208 -1.000568
2010-05-19 05:21:03 51°13.663 2°55.959 19.7841 0.061833 0.352086 -1.000568
2010-05-19 05:21:09 51°13.663 2°55.959 19.8331 0.061833 0.352092 -1.000568
2010-05-19 05:21:13 51°13.663 2°55.959 19.8516 0.061833 0.352092 -1.000568
2010-05-19 05:21:19 51°13.663 2°55.959 19.8629 0.061833 0.352092 -1.000568
2010-05-19 05:21:24 51°13.663 2°55.959 19.8703 0.061833 0.352098 -1.000568
2010-05-19 05:21:29 51°13.663 2°55.959 19.8687 0.061833 0.352092 -1.000568
2010-05-19 05:21:34 51°13.663 2°55.959 19.858 0.061833 0.352086 -1.000568
2010-05-19 05:21:39 51°13.663 2°55.959 19.8457 0.061833 0.352092 -1.000568
2010-05-19 05:21:44 51°13.663 2°55.959 19.8328 0.061833 0.352092 -1.000568
2010-05-19 05:21:49 51°13.663 2°55.959 19.8262 0.061833 0.352092 -0.965744
2010-05-19 05:21:54 51°13.663 2°55.959 19.8226 0.061833 0.352104 -1.000568
2010-05-19 05:21:59 51°13.663 2°55.959 19.8194 0.061833 0.352104 -1.000568
2010-05-19 05:22:04 51°13.663 2°55.959 19.8167 0.061833 0.352116 -1.000568
2010-05-19 05:22:09 51°13.663 2°55.959 19.8154 0.061833 0.352116 -1.000568
2010-05-19 05:22:14 51°13.663 2°55.959 19.8108 0.061833 0.352116 -1.000568
2010-05-19 05:22:18 51°13.663 2°55.959 19.8087 0.061833 0.352116 -0.93092
2010-05-19 05:22:24 51°13.663 2°55.959 19.8021 0.061833 0.352116 -0.965744
2010-05-19 05:22:29 51°13.663 2°55.959 19.7988 0.061833 0.352116 -1.000568
2010-05-19 05:22:34 51°13.663 2°55.959 19.7983 0.061833 0.352104 -0.965744
2010-05-19 05:22:38 51°13.663 2°55.959 19.7961 0.061833 0.352104 -0.965744
2010-05-19 05:22:44 51°13.663 2°55.959 19.7961 0.061833 0.352086 -0.965744
2010-05-19 05:22:49 51°13.663 2°55.959 19.7961 0.061833 0.352074 -0.965744
2010-05-19 05:22:53 51°13.664 2°55.959 19.7971 0.061833 0.352068 -1.000568
2010-05-19 05:22:58 51°13.664 2°55.958 19.7941 0.061833 0.35208 -1.000568
2010-05-19 05:23:04 51°13.664 2°55.959 19.7908 0.061833 0.352092 -1.000568
2010-05-19 05:23:09 51°13.665 2°55.959 19.7889 0.061833 0.352098 -1.035392
2010-05-19 05:23:14 51°13.665 2°55.96 19.7822 0.061833 0.352098 -1.035392
2010-05-19 05:23:18 51°13.666 2°55.961 19.7781 0.061833 0.352116 -0.965744
2010-05-19 05:23:24 51°13.666 2°55.961 19.7761 0.061833 0.352134 -0.965744
2010-05-19 05:23:25 51°13.665 2°55.96 19.7785 0.061833 0.352146 -1.000568
2010-05-19 05:23:25 51°13.665 2°55.96 19.774 0.061833 0.35214 -0.965744
2010-05-19 05:23:25 51°13.665 2°55.96 19.7759 0.061833 0.352152 -0.965744
2010-05-19 05:23:25 51°13.665 2°55.96 19.7768 0.061833 0.352146 -1.035392
2010-05-19 05:23:25 51°13.665 2°55.96 19.7729 0.061833 0.35214 -0.965744
2010-05-19 05:23:25 51°13.665 2°55.96 19.7729 0.061833 0.352134 -0.965744
2010-05-19 05:23:25 51°13.665 2°55.96 19.7711 0.061833 0.352134 -0.965744
2010-05-19 05:23:25 51°13.665 2°55.96 19.7733 0.061833 0.35214 -0.93092
2010-05-19 05:23:25 51°13.665 2°55.96 19.7736 0.061833 0.352134 -0.965744
2010-05-19 05:23:25 51°13.665 2°55.96 19.7743 0.061833 0.35214 -1.000568
2010-05-19 05:23:25 51°13.665 2°55.96 19.7769 0.061833 0.352134 -1.000568
2010-05-19 05:23:25 51°13.665 2°55.96 19.7784 0.061833 0.352146 -1.035392
2010-05-19 05:24:29 51°13.665 2°55.96 19.7686 0.061833 0.352134 -1.000568
2010-05-19 05:24:34 51°13.665 2°55.96 19.7619 0.061833 0.35214 -1.000568
2010-05-19 05:24:38 51°13.665 2°55.96 19.7585 0.061833 0.35214 -1.000568
2010-05-19 05:24:44 51°13.665 2°55.96 19.7556 0.061833 0.352146 -0.965744
2010-05-19 05:24:49 51°13.665 2°55.96 19.7563 0.061833 0.352146 -1.000568
2010-05-19 05:24:54 51°13.665 2°55.96 19.757 0.061833 0.35214 -0.965744
2010-05-19 05:24:58 51°13.665 2°55.96 19.7575 0.061833 0.352146 -1.000568
2010-05-19 05:25:04 51°13.665 2°55.96 19.7565 0.061833 0.352146 -0.965744
2010-05-19 05:25:09 51°13.665 2°55.96 19.7576 0.061833 0.352158 -1.000568
2010-05-19 05:25:14 51°13.665 2°55.96 19.7563 0.061833 0.352158 -1.000568
2010-05-19 05:25:18 51°13.665 2°55.96 19.7581 0.061833 0.352152 -1.000568
2010-05-19 05:25:23 51°13.665 2°55.96 19.7503 0.061833 0.352158 -1.000568
2010-05-19 05:25:29 51°13.665 2°55.96 19.729 0.061833 0.352158 -1.035392
2010-05-19 05:25:34 51°13.665 2°55.96 19.7201 0.061833 0.352158 -1.000568
2010-05-19 05:25:38 51°13.665 2°55.96 19.7174 0.061833 0.352158 -1.000568
2010-05-19 05:25:43 51°13.665 2°55.96 19.7189 0.061833 0.352164 -0.965744
2010-05-19 05:25:49 51°13.665 2°55.96 19.722 0.061833 0.352158 -0.965744
2010-05-19 05:25:54 51°13.665 2°55.96 19.7296 0.061833 0.352158 -0.965744
2010-05-19 05:25:59 51°13.665 2°55.96 19.7299 0.061833 0.352164 -0.965744
2010-05-19 05:26:04 51°13.665 2°55.96 19.7361 0.061833 0.352164 -0.965744
2010-05-19 05:26:09 51°13.665 2°55.96 19.7365 0.061833 0.352164 -0.965744
2010-05-19 05:26:14 51°13.665 2°55.96 19.7381 0.061833 0.35217 -0.965744
2010-05-19 05:26:19 51°13.665 2°55.96 19.7349 0.061833 0.35217 -0.965744
2010-05-19 05:26:24 51°13.665 2°55.96 19.7365 0.061833 0.35217 -0.965744
2010-05-19 05:26:29 51°13.665 2°55.96 19.7368 0.061833 0.35217 -0.965744
2010-05-19 05:26:34 51°13.665 2°55.96 19.7373 0.061833 0.352176 -0.965744
2010-05-19 05:26:38 51°13.665 2°55.96 19.735 0.061833 0.352182 -1.000568
2010-05-19 05:26:44 51°13.654 2°55.945 19.7342 0.061833 0.352182 -1.000568
2010-05-19 05:26:49 51°13.661 2°55.96 19.7345 0.061833 0.352182 -0.965744
2010-05-19 05:26:54 51°13.661 2°55.961 19.7392 0.061833 0.352182 -1.000568
2010-05-19 05:26:58 51°13.662 2°55.961 19.741 0.061833 0.352182 -1.000568
2010-05-19 05:27:04 51°13.662 2°55.962 19.7444 0.061833 0.352194 -0.965744
2010-05-19 05:27:09 51°13.662 2°55.962 19.7448 0.061833 0.352194 -0.965744
2010-05-19 05:27:14 51°13.662 2°55.961 19.748 0.061833 0.352194 -1.000568
2010-05-19 05:27:19 51°13.662 2°55.961 19.7506 0.061833 0.352194 -1.000568
2010-05-19 05:27:24 51°13.662 2°55.961 19.7536 0.061833 0.352194 -1.000568
2010-05-19 05:27:29 51°13.661 2°55.962 19.7537 0.061833 0.3522 -1.000568
2010-05-19 05:27:34 51°13.661 2°55.962 19.7551 0.061833 0.3522 -1.000568
2010-05-19 05:27:38 51°13.661 2°55.962 19.7564 0.061833 0.3522 -1.000568
2010-05-19 05:27:43 51°13.66 2°55.962 19.756 0.061833 0.352206 -1.000568
2010-05-19 05:27:49 51°13.659 2°55.962 19.755 0.061833 0.3522 -1.000568
2010-05-19 05:27:54 51°13.658 2°55.962 19.7552 0.061833 0.3522 -0.93092
2010-05-19 05:27:59 51°13.658 2°55.962 19.7537 0.061833 0.352206 -0.965744
2010-05-19 05:28:04 51°13.657 2°55.961 19.7531 0.061833 0.3522 -1.000568
2010-05-19 05:28:09 51°13.658 2°55.961 19.7523 0.061833 0.3522 -1.000568
2010-05-19 05:28:15 51°13.659 2°55.96 19.7524 0.061833 0.352212 -0.965744
2010-05-19 05:28:19 51°13.659 2°55.96 19.7483 0.061833 0.352212 -0.965744
2010-05-19 05:28:24 51°13.66 2°55.96 19.7492 0.061833 0.352212 -1.000568
2010-05-19 05:28:29 51°13.66 2°55.959 19.7487 0.061833 0.352218 -0.965744
2010-05-19 05:28:34 51°13.66 2°55.959 19.7482 0.061833 0.352218 -0.965744
2010-05-19 05:28:39 51°13.66 2°55.959 19.7478 0.061833 0.352218 -0.965744
2010-05-19 05:28:44 51°13.66 2°55.959 19.7487 0.061833 0.352218 -1.000568
2010-05-19 05:28:49 51°13.66 2°55.959 19.7469 0.061833 0.352224 -0.965744
2010-05-19 05:28:54 51°13.661 2°55.959 19.7479 0.061833 0.352224 -1.000568
2010-05-19 05:28:59 51°13.661 2°55.959 19.7479 0.061833 0.352224 -0.965744
2010-05-19 05:29:04 51°13.661 2°55.959 19.7467 0.061833 0.352224 -0.965744
2010-05-19 05:29:09 51°13.661 2°55.959 19.7474 0.061833 0.35223 -1.000568
2010-05-19 05:29:14 51°13.66 2°55.959 19.7462 0.061833 0.35223 -1.000568
2010-05-19 05:29:19 51°13.66 2°55.959 19.749 0.061833 0.352236 -1.000568
2010-05-19 05:29:24 51°13.661 2°55.959 19.7488 0.061833 0.352242 -0.965744
2010-05-19 05:29:29 51°13.661 2°55.959 19.7509 0.061833 0.352236 -1.000568
2010-05-19 05:29:34 51°13.661 2°55.959 19.75 0.061833 0.352242 -0.965744
2010-05-19 05:29:39 51°13.661 2°55.959 19.7457 0.061833 0.352242 -0.965744
2010-05-19 05:29:43 51°13.661 2°55.959 19.7461 0.061833 0.352242 -1.000568
2010-05-19 05:29:49 51°13.661 2°55.959 19.7419 0.061833 0.352242 -1.000568
2010-05-19 05:29:54 51°13.661 2°55.959 19.7425 0.061833 0.352242 -0.965744
2010-05-19 05:29:59 51°13.661 2°55.96 19.7436 0.061833 0.352242 -0.965744
2010-05-19 05:30:04 51°13.661 2°55.96 19.7419 0.061833 0.352248 -0.965744
2010-05-19 05:30:09 51°13.661 2°55.96 19.7393 0.061833 0.352248 -0.965744
2010-05-19 05:30:14 51°13.661 2°55.96 19.7373 0.061833 0.352248 -0.965744
2010-05-19 05:30:19 51°13.661 2°55.96 19.7379 0.061833 0.352248 -0.965744
2010-05-19 05:30:24 51°13.661 2°55.96 19.7346 0.061833 0.352254 -1.000568
2010-05-19 05:30:29 51°13.661 2°55.96 19.7315 0.061833 0.352254 -0.965744
2010-05-19 05:30:34 51°13.661 2°55.96 19.7258 0.061833 0.35226 -0.965744
2010-05-19 05:30:39 51°13.661 2°55.96 19.7269 0.061833 0.35226 -0.965744
2010-05-19 05:30:44 51°13.661 2°55.96 19.7285 0.061833 0.35226 -0.965744
2010-05-19 05:30:49 51°13.661 2°55.96 19.7275 0.061833 0.35226 -1.000568
2010-05-19 05:30:54 51°13.661 2°55.961 19.7256 0.061833 0.35226 -0.965744
2010-05-19 05:30:59 51°13.661 2°55.961 19.7264 0.061833 0.352266 -1.000568
2010-05-19 05:31:04 51°13.661 2°55.961 19.7245 0.061833 0.352266 -0.965744
2010-05-19 05:31:09 51°13.661 2°55.961 19.7277 0.061833 0.352266 -0.965744
2010-05-19 05:31:14 51°13.661 2°55.961 19.7298 0.061833 0.352272 -1.000568
2010-05-19 05:31:19 51°13.661 2°55.96 19.7311 0.061833 0.352278 -1.000568
2010-05-19 05:31:24 51°13.661 2°55.96 19.7299 0.061833 0.352272 -0.965744
2010-05-19 05:31:29 51°13.661 2°55.96 19.7303 0.061833 0.352278 -1.000568
2010-05-19 05:31:34 51°13.661 2°55.96 19.7284 0.061833 0.352278 -1.000568
2010-05-19 05:31:39 51°13.661 2°55.961 19.7309 0.061833 0.352278 -1.000568
2010-05-19 05:31:44 51°13.661 2°55.961 19.7306 0.061833 0.352278 -1.000568
2010-05-19 05:31:49 51°13.661 2°55.961 19.7411 0.061833 0.352284 -0.965744
2010-05-19 05:31:54 51°13.661 2°55.961 19.7408 0.061833 0.352278 -1.000568
2010-05-19 05:31:59 51°13.661 2°55.961 19.7415 0.061833 0.35229 -0.965744
2010-05-19 05:32:04 51°13.661 2°55.961 19.7414 0.061729 0.351679 -1.000568
2010-05-19 05:32:09 51°13.66 2°55.961 19.7413 0.061833 0.352296 -1.000568
2010-05-19 05:32:14 51°13.66 2°55.961 19.7419 0.061833 0.352296 -1.000568
2010-05-19 05:32:19 51°13.66 2°55.961 19.7424 0.061833 0.35229 -1.000568
2010-05-19 05:32:24 51°13.66 2°55.961 19.7423 0.061833 0.352296 -1.035392
2010-05-19 05:32:29 51°13.66 2°55.961 19.7412 0.061833 0.352296 -0.965744
2010-05-19 05:32:34 51°13.66 2°55.96 19.7408 0.061833 0.352296 -0.965744
2010-05-19 05:32:39 51°13.66 2°55.96 19.7405 0.061833 0.352296 -0.965744
2010-05-19 05:32:44 51°13.66 2°55.96 19.7327 0.061833 0.352296 -0.965744
2010-05-19 05:32:49 51°13.66 2°55.96 19.728 0.061833 0.352308 -0.965744
2010-05-19 05:32:54 51°13.66 2°55.96 19.6941 0.061729 0.351691 -0.965744
2010-05-19 05:32:59 51°13.66 2°55.96 19.683 0.061833 0.352308 -0.965744
2010-05-19 05:33:04 51°13.66 2°55.959 19.6896 0.061729 0.351703 -1.000568
2010-05-19 05:33:09 51°13.66 2°55.957 19.6133 0.061729 0.351703 -1.000568
2010-05-19 05:33:14 51°13.661 2°55.955 19.6395 0.061729 0.351703 -1.000568
2010-05-19 05:33:19 51°13.662 2°55.952 19.6576 0.061729 0.351703 -0.965744
2010-05-19 05:33:24 51°13.662 2°55.948 19.6789 0.061729 0.351709 -0.965744
2010-05-19 05:33:30 51°13.664 2°55.942 19.7009 0.061729 0.351703 -1.000568
2010-05-19 05:33:35 51°13.665 2°55.936 19.7242 0.061833 0.352308 -0.965744
2010-05-19 05:33:41 51°13.667 2°55.928 19.7351 0.061833 0.352308 -0.965744
2010-05-19 05:33:47 51°13.669 2°55.92 19.7317 0.061833 0.352308 -0.965744
2010-05-19 05:33:52 51°13.671 2°55.912 19.7528 0.061729 0.351703 -1.000568
2010-05-19 05:33:58 51°13.673 2°55.902 19.6862 0.061833 0.352314 -1.000568
2010-05-19 05:34:03 51°13.675 2°55.893 19.6836 0.061729 0.351715 -1.000568
2010-05-19 05:34:07 51°13.677 2°55.885 19.7226 0.061729 0.351721 -1.000568
2010-05-19 05:34:13 51°13.679 2°55.874 19.7542 0.061833 0.352332 -1.000568
2010-05-19 05:34:18 51°13.681 2°55.865 19.7491 0.061833 0.352332 -1.000568
2010-05-19 05:34:23 51°13.683 2°55.856 19.7501 0.061729 0.351727 -0.965744
2010-05-19 05:34:27 51°13.684 2°55.849 19.7455 0.061833 0.352332 -0.965744
2010-05-19 05:34:33 51°13.686 2°55.839 19.7413 0.061729 0.351733 -1.000568
2010-05-19 05:34:38 51°13.688 2°55.83 19.7617 0.061833 0.35235 -1.000568
2010-05-19 05:34:43 51°13.689 2°55.822 19.749 0.061833 0.35235 -1.000568
2010-05-19 05:34:47 51°13.689 2°55.816 19.7442 0.061729 0.351727 -1.000568
2010-05-19 05:34:53 51°13.691 2°55.807 19.7351 0.061729 0.351727 -1.000568
2010-05-19 05:34:58 51°13.692 2°55.799 19.735 0.061729 0.351727 -1.000568
2010-05-19 05:35:03 51°13.694 2°55.792 19.7331 0.061729 0.351733 -1.000568
2010-05-19 05:35:07 51°13.695 2°55.786 19.7413 0.061729 0.351733 -0.965744
2010-05-19 05:35:12 51°13.696 2°55.779 19.7321 0.061729 0.351733 -0.965744
2010-05-19 05:35:17 51°13.698 2°55.772 19.756 0.061729 0.351739 -0.965744
2010-05-19 05:35:22 51°13.699 2°55.766 19.7245 0.061729 0.351745 -0.965744
2010-05-19 05:35:27 51°13.7 2°55.76 19.7371 0.061729 0.351745 -1.000568
2010-05-19 05:35:31 51°13.7 2°55.755 19.6975 0.061729 0.351745 -1.000568
2010-05-19 05:35:36 51°13.701 2°55.751 19.7459 0.061833 0.352356 -0.965744
2010-05-19 05:35:41 51°13.701 2°55.748 19.7837 0.061833 0.352356 -0.965744
2010-05-19 05:35:46 51°13.702 2°55.747 19.7706 0.061729 0.351739 -1.000568
2010-05-19 05:35:51 51°13.702 2°55.746 19.6948 0.061729 0.351739 -0.965744
2010-05-19 05:35:56 51°13.702 2°55.746 19.7081 0.061729 0.351751 -0.965744
2010-05-19 05:36:01 51°13.703 2°55.746 19.7339 0.061729 0.351757 -1.000568
2010-05-19 05:36:06 51°13.703 2°55.746 19.7099 0.061729 0.351763 -1.000568
2010-05-19 05:36:11 51°13.704 2°55.746 19.712 0.061729 0.351763 -1.000568
2010-05-19 05:36:15 51°13.704 2°55.746 19.717 0.061729 0.351763 -0.965744
2010-05-19 05:36:20 51°13.705 2°55.747 19.7387 0.061729 0.351763 -0.965744
2010-05-19 05:36:25 51°13.706 2°55.748 19.7605 0.061729 0.351763 -1.000568
2010-05-19 05:36:30 51°13.707 2°55.749 19.7527 0.061729 0.351769 -1.000568
2010-05-19 05:36:35 51°13.708 2°55.75 19.7314 0.061729 0.351775 -1.000568
2010-05-19 05:36:39 51°13.709 2°55.751 19.7249 0.061729 0.351775 -1.000568
2010-05-19 05:36:44 51°13.71 2°55.752 19.6848 0.061729 0.351775 -0.965744
2010-05-19 05:36:49 51°13.711 2°55.752 19.7176 0.061729 0.351775 -1.000568
2010-05-19 05:36:54 51°13.711 2°55.752 19.6954 0.061729 0.351769 -1.000568
2010-05-19 05:36:59 51°13.711 2°55.752 19.6804 0.061729 0.351775 -1.000568
2010-05-19 05:37:04 51°13.71 2°55.751 19.6864 0.061729 0.351769 -0.965744
2010-05-19 05:37:09 51°13.709 2°55.749 19.7173 0.061729 0.351769 -0.965744
2010-05-19 05:37:14 51°13.708 2°55.748 19.7027 0.061729 0.351775 -0.965744
2010-05-19 05:37:19 51°13.706 2°55.746 19.7715 0.061729 0.351775 -1.000568
2010-05-19 05:37:24 51°13.704 2°55.745 19.7546 0.061729 0.351775 -1.000568
2010-05-19 05:37:30 51°13.703 2°55.743 19.7606 0.061729 0.351781 -1.000568
2010-05-19 05:37:35 51°13.701 2°55.742 19.7368 0.061729 0.351781 -0.965744
2010-05-19 05:37:41 51°13.701 2°55.741 19.801 0.061729 0.351781 -0.965744
2010-05-19 05:37:47 51°13.702 2°55.741 19.8105 0.061729 0.351781 -0.965744
2010-05-19 05:37:52 51°13.703 2°55.741 19.8272 0.061729 0.351787 -0.965744
2010-05-19 05:37:58 51°13.706 2°55.741 19.8425 0.061833 0.352398 -0.965744
2010-05-19 05:38:03 51°13.708 2°55.74 19.8461 0.061729 0.351799 -0.965744
2010-05-19 05:38:08 51°13.711 2°55.739 19.8421 0.061729 0.35181 -0.965744
2010-05-19 05:38:12 51°13.715 2°55.737 19.8393 0.061729 0.35181 -0.965744
2010-05-19 05:38:18 51°13.72 2°55.734 19.8344 0.061729 0.35181 -1.000568
2010-05-19 05:38:23 51°13.725 2°55.73 19.8253 0.061729 0.35181 -0.93092
2010-05-19 05:38:27 51°13.729 2°55.727 19.7608 0.061729 0.351805 -0.965744
2010-05-19 05:38:32 51°13.735 2°55.722 19.7256 0.061729 0.351793 -0.965744
2010-05-19 05:38:37 51°13.742 2°55.716 19.6595 0.061833 0.352404 -0.965744
2010-05-19 05:38:42 51°13.749 2°55.71 19.6349 0.061833 0.352404 -0.965744
2010-05-19 05:38:47 51°13.757 2°55.704 19.6136 0.061729 0.351787 -0.965744
2010-05-19 05:38:51 51°13.763 2°55.699 19.5992 0.061729 0.351787 -0.965744
2010-05-19 05:38:56 51°13.77 2°55.692 19.5851 0.061729 0.351793 -1.000568
2010-05-19 05:39:01 51°13.778 2°55.685 19.5651 0.061729 0.351805 -1.000568
2010-05-19 05:39:06 51°13.785 2°55.677 19.6055 0.061729 0.351805 -0.965744
2010-05-19 05:39:11 51°13.793 2°55.67 19.6022 0.061729 0.351805 -0.965744
2010-05-19 05:39:15 51°13.799 2°55.663 19.6086 0.061729 0.351816 -0.965744
2010-05-19 05:39:20 51°13.806 2°55.655 19.5708 0.061729 0.351822 -0.965744
2010-05-19 05:39:25 51°13.813 2°55.647 19.5664 0.061729 0.351822 -1.000568
2010-05-19 05:39:30 51°13.821 2°55.64 19.5712 0.061729 0.351822 -0.965744
2010-05-19 05:39:35 51°13.829 2°55.632 19.5549 0.061729 0.351822 -1.000568
2010-05-19 05:39:40 51°13.836 2°55.626 19.5623 0.061729 0.351828 -1.000568
2010-05-19 05:39:45 51°13.844 2°55.619 19.5761 0.061729 0.351828 -1.000568
2010-05-19 05:39:50 51°13.852 2°55.613 19.5966 0.061729 0.351828 -1.000568
2010-05-19 05:39:55 51°13.86 2°55.607 19.6121 0.061729 0.351834 -0.965744
2010-05-19 05:39:59 51°13.866 2°55.602 19.6276 0.061729 0.35184 -0.965744
2010-05-19 05:40:04 51°13.874 2°55.597 19.6338 0.061729 0.351846 -0.965744
2010-05-19 05:40:09 51°13.882 2°55.591 19.6583 0.061729 0.351846 -0.965744
2010-05-19 05:40:14 51°13.889 2°55.584 19.6614 0.061729 0.351852 -0.965744
2010-05-19 05:40:19 51°13.896 2°55.578 19.6512 0.061729 0.351852 -0.965744
2010-05-19 05:40:24 51°13.903 2°55.572 19.6856 0.061729 0.351852 -0.965744
2010-05-19 05:40:29 51°13.91 2°55.566 19.6551 0.061729 0.351852 -1.000568
2010-05-19 05:40:34 51°13.917 2°55.56 19.6664 0.061729 0.351852 -0.965744
2010-05-19 05:40:39 51°13.923 2°55.554 19.6624 0.061729 0.351852 -0.965744
2010-05-19 05:40:44 51°13.929 2°55.549 19.6764 0.061729 0.351852 -0.965744
2010-05-19 05:40:49 51°13.935 2°55.543 19.6795 0.061729 0.351858 -1.000568
2010-05-19 05:40:54 51°13.941 2°55.537 19.6982 0.061729 0.351858 -1.000568
2010-05-19 05:40:59 51°13.947 2°55.532 19.6913 0.061729 0.351864 -1.000568
2010-05-19 05:41:04 51°13.953 2°55.527 19.7019 0.061729 0.351864 -0.965744
2010-05-19 05:41:09 51°13.959 2°55.522 19.6994 0.061729 0.351864 -1.000568
2010-05-19 05:41:14 51°13.964 2°55.518 19.7189 0.061729 0.351864 -1.000568
2010-05-19 05:41:19 51°13.97 2°55.513 19.7239 0.061729 0.351864 -1.000568
2010-05-19 05:41:24 51°13.975 2°55.509 19.699 0.061729 0.351864 -1.000568
2010-05-19 05:41:29 51°13.981 2°55.505 19.6757 0.061729 0.351852 -1.035392
2010-05-19 05:41:34 51°13.986 2°55.5 19.684 0.061729 0.351846 -0.965744
2010-05-19 05:41:39 51°13.992 2°55.496 19.6698 0.061729 0.351846 -0.965744
2010-05-19 05:41:44 51°13.998 2°55.493 19.6917 0.061729 0.351846 -1.000568
2010-05-19 05:41:49 51°14.004 2°55.489 19.6756 0.061729 0.351846 -1.000568
2010-05-19 05:41:54 51°14.01 2°55.486 19.6936 0.061729 0.351858 -1.000568
2010-05-19 05:41:59 51°14.016 2°55.483 19.7006 0.061729 0.35187 -1.000568
2010-05-19 05:42:04 51°14.022 2°55.48 19.6992 0.061729 0.351882 -0.965744
2010-05-19 05:42:09 51°14.028 2°55.477 19.725 0.061729 0.351882 -0.965744
2010-05-19 05:42:14 51°14.034 2°55.475 19.7413 0.061729 0.351888 -0.965744
2010-05-19 05:42:19 51°14.04 2°55.472 19.7126 0.061729 0.351894 -1.000568
2010-05-19 05:42:24 51°14.046 2°55.469 19.7161 0.061729 0.3519 -1.000568
2010-05-19 05:42:29 51°14.052 2°55.466 19.7135 0.061729 0.3519 -0.965744
2010-05-19 05:42:34 51°14.059 2°55.464 19.7068 0.061729 0.3519 -1.000568
2010-05-19 05:42:39 51°14.065 2°55.461 19.7165 0.061729 0.3519 -1.000568
2010-05-19 05:42:44 51°14.071 2°55.458 19.7199 0.061729 0.351894 -1.000568
2010-05-19 05:42:49 51°14.077 2°55.455 19.7225 0.061729 0.351894 -1.000568
2010-05-19 05:42:54 51°14.084 2°55.452 19.7236 0.061729 0.351888 -1.000568
2010-05-19 05:42:59 51°14.09 2°55.448 19.7223 0.061729 0.351894 -1.035392
2010-05-19 05:43:04 51°14.096 2°55.445 19.7112 0.061729 0.3519 -0.965744
2010-05-19 05:43:09 51°14.102 2°55.441 19.7122 0.061729 0.3519 -1.000568
2010-05-19 05:43:14 51°14.109 2°55.437 19.7207 0.061729 0.3519 -1.000568
2010-05-19 05:43:19 51°14.115 2°55.434 19.7323 0.061729 0.3519 -1.000568
2010-05-19 05:43:23 51°14.12 2°55.431 19.7332 0.061729 0.3519 -1.000568
2010-05-19 05:43:29 51°14.127 2°55.426 19.751 0.061729 0.351906 -1.000568
2010-05-19 05:43:34 51°14.133 2°55.422 19.737 0.061729 0.351906 -1.000568
2010-05-19 05:43:39 51°14.139 2°55.418 19.751 0.061729 0.351906 -1.000568
2010-05-19 05:43:44 51°14.146 2°55.413 19.7382 0.061729 0.351906 -0.965744
2010-05-19 05:43:49 51°14.152 2°55.408 19.7408 0.061729 0.351906 -1.000568
2010-05-19 05:43:54 51°14.159 2°55.403 19.7567 0.061729 0.351906 -1.000568
2010-05-19 05:43:59 51°14.166 2°55.397 19.7472 0.061729 0.351906 -0.965744
2010-05-19 05:44:04 51°14.173 2°55.391 19.7426 0.061729 0.351912 -0.965744
2010-05-19 05:44:09 51°14.18 2°55.384 19.7185 0.061729 0.351912 -0.965744
2010-05-19 05:44:14 51°14.188 2°55.377 19.7027 0.061729 0.351918 -0.965744
2010-05-19 05:44:19 51°14.196 2°55.369 19.6991 0.061729 0.351918 -1.000568
2010-05-19 05:44:24 51°14.204 2°55.36 19.6728 0.061729 0.351912 -1.000568
2010-05-19 05:44:29 51°14.212 2°55.351 19.6868 0.061729 0.351912 -0.965744
2010-05-19 05:44:34 51°14.221 2°55.342 19.6537 0.061729 0.351912 -0.965744
2010-05-19 05:44:39 51°14.229 2°55.332 19.6677 0.061729 0.351912 -0.965744
2010-05-19 05:44:44 51°14.239 2°55.322 19.6555 0.061729 0.351918 -1.000568
2010-05-19 05:44:49 51°14.248 2°55.311 19.6376 0.061729 0.351912 -0.965744
2010-05-19 05:44:54 51°14.257 2°55.301 19.6328 0.061729 0.351918 -0.965744
2010-05-19 05:44:59 51°14.267 2°55.29 19.5963 0.061729 0.351924 -0.965744
2010-05-19 05:45:04 51°14.277 2°55.279 19.5659 0.061729 0.351912 -0.965744
2010-05-19 05:45:09 51°14.287 2°55.267 19.6074 0.061729 0.351924 -1.000568
2010-05-19 05:45:14 51°14.297 2°55.256 19.5837 0.061729 0.351924 -1.000568
2010-05-19 05:45:19 51°14.307 2°55.245 19.583 0.061729 0.351924 -1.000568
2010-05-19 05:45:24 51°14.317 2°55.233 19.5613 0.061729 0.351924 -1.000568
2010-05-19 05:45:29 51°14.327 2°55.221 19.5682 0.061729 0.351924 -1.000568
2010-05-19 05:45:34 51°14.338 2°55.21 19.5695 0.061729 0.35193 -1.000568
2010-05-19 05:45:39 51°14.348 2°55.198 19.5803 0.061729 0.35193 -1.000568
2010-05-19 05:45:44 51°14.358 2°55.187 19.6606 0.061729 0.35193 -1.000568
2010-05-19 05:45:49 51°14.368 2°55.175 19.6366 0.061729 0.35193 -1.000568
2010-05-19 05:45:54 51°14.378 2°55.163 19.5979 0.061729 0.351936 -0.965744
2010-05-19 05:45:59 51°14.388 2°55.15 19.5922 0.061729 0.351942 -1.000568
2010-05-19 05:46:04 51°14.398 2°55.137 19.5915 0.061729 0.351942 -0.965744
2010-05-19 05:46:09 51°14.408 2°55.124 19.5771 0.061729 0.351942 -0.965744
2010-05-19 05:46:14 51°14.418 2°55.11 19.5245 0.061729 0.351942 -1.000568
2010-05-19 05:46:19 51°14.428 2°55.096 19.5221 0.061729 0.351942 -0.965744
2010-05-19 05:46:24 51°14.439 2°55.082 19.4 0.061729 0.351936 -1.000568
2010-05-19 05:46:29 51°14.449 2°55.068 19.35 0.061729 0.351936 -0.965744
2010-05-19 05:46:34 51°14.46 2°55.055 19.3731 0.061729 0.35193 -0.965744
2010-05-19 05:46:39 51°14.472 2°55.042 19.4494 0.061729 0.351918 -1.000568
2010-05-19 05:46:44 51°14.484 2°55.03 19.4659 0.061729 0.351918 -1.000568
2010-05-19 05:46:49 51°14.496 2°55.018 19.5391 0.061729 0.35193 -1.000568
2010-05-19 05:46:54 51°14.509 2°55.006 19.56 0.061729 0.35193 -0.965744
2010-05-19 05:46:59 51°14.522 2°54.994 19.5444 0.061729 0.351942 -0.965744
2010-05-19 05:47:04 51°14.536 2°54.981 19.5743 0.061729 0.351942 -0.965744
2010-05-19 05:47:09 51°14.55 2°54.969 19.4662 0.061729 0.351942 -0.965744
2010-05-19 05:47:14 51°14.564 2°54.956 19.4456 0.061729 0.351942 -0.965744
2010-05-19 05:47:19 51°14.579 2°54.942 19.4762 0.061729 0.351948 -0.965744
2010-05-19 05:47:24 51°14.594 2°54.929 19.4816 0.061729 0.351936 -1.000568
2010-05-19 05:47:29 51°14.609 2°54.915 19.5164 0.061729 0.351942 -0.965744
2010-05-19 05:47:34 51°14.624 2°54.902 19.4528 0.061729 0.351936 -0.965744
2010-05-19 05:47:39 51°14.64 2°54.887 19.5889 0.061729 0.351936 -0.965744
2010-05-19 05:47:44 51°14.655 2°54.871 19.549 0.061729 0.351942 -1.000568
2010-05-19 05:47:49 51°14.669 2°54.854 19.4105 0.061729 0.351942 -1.035392
2010-05-19 05:47:54 51°14.684 2°54.836 19.3122 0.061729 0.351948 -1.000568
2010-05-19 05:47:59 51°14.698 2°54.818 19.1741 0.061729 0.351942 -1.000568
2010-05-19 05:48:04 51°14.714 2°54.801 19.3077 0.061729 0.351918 -1.000568
2010-05-19 05:48:09 51°14.73 2°54.785 19.3172 0.061729 0.351918 -1.000568
2010-05-19 05:48:14 51°14.746 2°54.769 19.4136 0.061729 0.351912 -0.965744
2010-05-19 05:48:19 51°14.762 2°54.754 19.3553 0.061729 0.3519 -0.965744
2010-05-19 05:48:24 51°14.779 2°54.739 19.4432 0.061729 0.351912 -0.965744
2010-05-19 05:48:29 51°14.796 2°54.725 19.4228 0.061729 0.351924 -1.000568
2010-05-19 05:48:34 51°14.813 2°54.71 19.4748 0.061729 0.351936 -1.000568
2010-05-19 05:48:39 51°14.83 2°54.695 19.4555 0.061729 0.351942 -1.000568
2010-05-19 05:48:44 51°14.846 2°54.679 19.4193 0.061729 0.351942 -1.000568
2010-05-19 05:48:49 51°14.863 2°54.664 19.4112 0.061729 0.351948 -0.965744
2010-05-19 05:48:54 51°14.879 2°54.648 19.4562 0.061729 0.351948 -1.000568
2010-05-19 05:48:59 51°14.896 2°54.633 19.5161 0.061729 0.351936 -0.965744
2010-05-19 05:49:04 51°14.912 2°54.615 19.5228 0.061729 0.351942 -0.965744
2010-05-19 05:49:09 51°14.927 2°54.598 19.4272 0.061729 0.351942 -0.965744
2010-05-19 05:49:14 51°14.942 2°54.579 19.4671 0.061729 0.351936 -0.965744
2010-05-19 05:49:19 51°14.957 2°54.561 19.3664 0.061729 0.351936 -0.965744
2010-05-19 05:49:24 51°14.971 2°54.541 19.3138 0.061729 0.351942 -1.000568
2010-05-19 05:49:29 51°14.986 2°54.522 19.4317 0.061729 0.351924 -0.965744
2010-05-19 05:49:34 51°15 2°54.503 19.33 0.061729 0.351924 -1.000568
2010-05-19 05:49:39 51°15.015 2°54.484 19.4444 0.061729 0.351924 -1.000568
2010-05-19 05:49:44 51°15.03 2°54.465 19.3847 0.061729 0.351912 -0.965744
2010-05-19 05:49:49 51°15.044 2°54.446 19.37 0.061729 0.351924 -1.000568
2010-05-19 05:49:54 51°15.059 2°54.426 19.4154 0.061729 0.351924 -0.965744
2010-05-19 05:49:59 51°15.074 2°54.407 19.3992 0.061729 0.351924 -0.965744
2010-05-19 05:50:04 51°15.089 2°54.388 19.4084 0.061729 0.351924 -0.965744
2010-05-19 05:50:09 51°15.104 2°54.369 19.4326 0.061729 0.351918 -1.000568
2010-05-19 05:50:14 51°15.118 2°54.349 19.3728 0.061729 0.351918 -1.000568
2010-05-19 05:50:19 51°15.133 2°54.329 19.3136 0.061729 0.351918 -0.965744
2010-05-19 05:50:24 51°15.147 2°54.309 19.3971 0.061729 0.351924 -0.965744
2010-05-19 05:50:29 51°15.162 2°54.289 19.4096 0.061729 0.351924 -1.000568
2010-05-19 05:50:34 51°15.176 2°54.269 19.4005 0.061729 0.351924 -1.000568
2010-05-19 05:50:39 51°15.19 2°54.249 19.3614 0.061729 0.351924 -1.000568
2010-05-19 05:50:44 51°15.205 2°54.229 19.3238 0.061729 0.351918 -0.93092
2010-05-19 05:50:49 51°15.22 2°54.211 19.3862 0.061729 0.351924 -0.965744
2010-05-19 05:50:54 51°15.235 2°54.192 19.3051 0.061729 0.351918 -1.000568
2010-05-19 05:50:59 51°15.251 2°54.174 19.3928 0.061729 0.351912 -1.000568
2010-05-19 05:51:04 51°15.266 2°54.156 19.3643 0.061729 0.351924 -0.965744
2010-05-19 05:51:09 51°15.282 2°54.138 19.4108 0.061729 0.351924 -0.965744
2010-05-19 05:51:14 51°15.298 2°54.121 19.3777 0.061729 0.351912 -1.000568
2010-05-19 05:51:19 51°15.314 2°54.104 19.4064 0.061729 0.351918 -0.965744
2010-05-19 05:51:24 51°15.33 2°54.087 19.397 0.061729 0.351918 -1.000568
2010-05-19 05:51:29 51°15.346 2°54.07 19.4194 0.061729 0.351918 -0.965744
2010-05-19 05:51:34 51°15.362 2°54.054 19.3788 0.061729 0.35193 -0.965744
2010-05-19 05:51:39 51°15.378 2°54.037 19.4283 0.061729 0.35193 -0.965744
2010-05-19 05:51:44 51°15.394 2°54.02 19.433 0.061729 0.35193 -0.965744
2010-05-19 05:51:49 51°15.41 2°54.003 19.4018 0.061729 0.35193 -1.000568
2010-05-19 05:51:54 51°15.425 2°53.985 19.4359 0.061729 0.351936 -1.000568
2010-05-19 05:51:59 51°15.441 2°53.967 19.4203 0.061729 0.35193 -1.000568
2010-05-19 05:52:03 51°15.453 2°53.952 19.4265 0.061729 0.351936 -0.93092
2010-05-19 05:52:09 51°15.471 2°53.93 19.4251 0.061729 0.351936 -0.93092
2010-05-19 05:52:14 51°15.486 2°53.912 19.4054 0.061729 0.351936 -0.965744
2010-05-19 05:52:19 51°15.501 2°53.894 19.3843 0.061729 0.35193 -0.965744
2010-05-19 05:52:24 51°15.516 2°53.875 19.3677 0.061729 0.351936 -0.965744
2010-05-19 05:52:29 51°15.532 2°53.856 19.403 0.061729 0.35193 -0.965744
2010-05-19 05:52:34 51°15.547 2°53.838 19.4047 0.061729 0.35193 -0.965744
2010-05-19 05:52:39 51°15.562 2°53.819 19.3755 0.061729 0.35193 -0.965744
2010-05-19 05:52:44 51°15.577 2°53.8 19.3719 0.061729 0.35193 -1.000568
2010-05-19 05:52:49 51°15.593 2°53.783 19.326 0.061729 0.351936 -0.965744
2010-05-19 05:52:54 51°15.608 2°53.764 19.403 0.061729 0.351948 -1.000568
2010-05-19 05:52:59 51°15.624 2°53.746 19.3719 0.061729 0.351942 -1.000568
2010-05-19 05:53:04 51°15.639 2°53.728 19.4124 0.061729 0.351948 -1.000568
2010-05-19 05:53:09 51°15.655 2°53.71 19.3673 0.061729 0.351948 -1.000568
2010-05-19 05:53:14 51°15.671 2°53.692 19.4088 0.061729 0.351948 -1.000568
2010-05-19 05:53:19 51°15.686 2°53.675 19.4055 0.061729 0.351954 -1.000568
2010-05-19 05:53:24 51°15.702 2°53.657 19.3873 0.061729 0.351948 -1.000568
2010-05-19 05:53:29 51°15.717 2°53.639 19.3946 0.061729 0.351954 -0.965744
2010-05-19 05:53:34 51°15.733 2°53.621 19.4096 0.061729 0.351954 -1.000568
2010-05-19 05:53:39 51°15.748 2°53.603 19.381 0.061729 0.351954 -1.000568
2010-05-19 05:53:44 51°15.764 2°53.585 19.4055 0.061729 0.351948 -1.000568
2010-05-19 05:53:49 51°15.779 2°53.567 19.3891 0.061729 0.351954 -0.965744
2010-05-19 05:53:54 51°15.795 2°53.55 19.3737 0.061729 0.351948 -1.000568
2010-05-19 05:53:59 51°15.81 2°53.532 19.3279 0.061729 0.351966 -0.965744
2010-05-19 05:54:04 51°15.826 2°53.515 19.2506 0.061729 0.35196 -1.000568
2010-05-19 05:54:09 51°15.841 2°53.497 19.3195 0.061729 0.35196 -1.000568
2010-05-19 05:54:14 51°15.858 2°53.482 19.2793 0.061729 0.351972 -1.000568
2010-05-19 05:54:19 51°15.875 2°53.466 19.3152 0.061729 0.35196 -0.965744
2010-05-19 05:54:24 51°15.892 2°53.453 19.3349 0.061729 0.351972 -1.000568
2010-05-19 05:54:29 51°15.909 2°53.439 19.3157 0.061729 0.351966 -0.965744
2010-05-19 05:54:34 51°15.927 2°53.427 19.3708 0.061729 0.351972 -1.000568
2010-05-19 05:54:39 51°15.945 2°53.416 19.3536 0.061729 0.351972 -1.000568
2010-05-19 05:54:44 51°15.963 2°53.405 19.3725 0.061729 0.351984 -0.965744
2010-05-19 05:54:49 51°15.981 2°53.395 19.3696 0.061729 0.351972 -0.965744
2010-05-19 05:54:54 51°16 2°53.385 19.3992 0.061729 0.351984 -0.965744
2010-05-19 05:54:59 51°16.018 2°53.375 19.3506 0.061729 0.35199 -1.000568
2010-05-19 05:55:04 51°16.037 2°53.366 19.4221 0.061729 0.35199 -1.000568
2010-05-19 05:55:09 51°16.055 2°53.357 19.4099 0.061729 0.35199 -1.000568
2010-05-19 05:55:14 51°16.074 2°53.348 19.4191 0.061729 0.35199 -1.000568
2010-05-19 05:55:19 51°16.092 2°53.339 19.4136 0.061729 0.35199 -1.000568
2010-05-19 05:55:24 51°16.111 2°53.329 19.4092 0.061729 0.352002 -0.965744
2010-05-19 05:55:29 51°16.13 2°53.321 19.3827 0.061729 0.351996 -0.965744
2010-05-19 05:55:34 51°16.148 2°53.312 19.4227 0.061729 0.352002 -0.965744
2010-05-19 05:55:39 51°16.167 2°53.302 19.3599 0.061729 0.352002 -0.965744
2010-05-19 05:55:44 51°16.185 2°53.293 19.3823 0.061729 0.352002 -1.000568
2010-05-19 05:55:49 51°16.204 2°53.284 19.4143 0.061729 0.352008 -0.965744
2010-05-19 05:55:54 51°16.223 2°53.274 19.3983 0.061729 0.352014 -0.965744
2010-05-19 05:55:59 51°16.241 2°53.265 19.3983 0.061729 0.352008 -0.965744
2010-05-19 05:56:04 51°16.26 2°53.256 19.4181 0.061729 0.35202 -0.965744
2010-05-19 05:56:09 51°16.278 2°53.246 19.4225 0.061729 0.35202 -1.000568
2010-05-19 05:56:14 51°16.297 2°53.237 19.4119 0.061729 0.35202 -1.000568
2010-05-19 05:56:19 51°16.315 2°53.226 19.419 0.061729 0.35202 -0.965744
2010-05-19 05:56:24 51°16.334 2°53.217 19.3693 0.061729 0.35202 -0.965744
2010-05-19 05:56:29 51°16.352 2°53.205 19.4129 0.061729 0.352026 -1.000568
2010-05-19 05:56:34 51°16.371 2°53.195 19.3955 0.061729 0.352026 -1.000568
2010-05-19 05:56:39 51°16.389 2°53.184 19.3815 0.061729 0.352026 -1.000568
2010-05-19 05:56:43 51°16.404 2°53.175 19.4158 0.061729 0.35202 -0.965744
2010-05-19 05:56:49 51°16.426 2°53.162 19.4057 0.061729 0.35202 -1.000568
2010-05-19 05:56:54 51°16.444 2°53.152 19.3731 0.061729 0.352026 -0.965744
2010-05-19 05:56:59 51°16.462 2°53.141 19.3732 0.061729 0.352026 -1.000568
2010-05-19 05:57:04 51°16.481 2°53.131 19.3753 0.061729 0.352026 -1.000568
2010-05-19 05:57:09 51°16.499 2°53.12 19.3863 0.061729 0.352026 -1.000568
2010-05-19 05:57:14 51°16.517 2°53.109 19.3888 0.061729 0.352026 -1.000568
2010-05-19 05:57:19 51°16.536 2°53.098 19.4037 0.061729 0.35202 -1.000568
2010-05-19 05:57:24 51°16.554 2°53.088 19.409 0.061729 0.352026 -0.965744
2010-05-19 05:57:29 51°16.573 2°53.077 19.3801 0.061729 0.352026 -1.000568
2010-05-19 05:57:34 51°16.591 2°53.067 19.3953 0.061729 0.352033 -0.965744
2010-05-19 05:57:39 51°16.61 2°53.056 19.3943 0.061729 0.352033 -0.965744
2010-05-19 05:57:44 51°16.628 2°53.046 19.3907 0.061729 0.352033 -1.000568
2010-05-19 05:57:49 51°16.647 2°53.034 19.3972 0.061729 0.352033 -1.000568
2010-05-19 05:57:54 51°16.665 2°53.024 19.3954 0.061729 0.352039 -0.965744
2010-05-19 05:57:59 51°16.684 2°53.014 19.406 0.061729 0.352039 -0.965744
2010-05-19 05:58:04 51°16.703 2°53.003 19.3779 0.061729 0.352039 -1.000568
2010-05-19 05:58:09 51°16.721 2°52.992 19.3811 0.061729 0.352039 -1.000568
2010-05-19 05:58:14 51°16.74 2°52.982 19.3962 0.061729 0.352039 -1.000568
2010-05-19 05:58:19 51°16.758 2°52.971 19.4112 0.061729 0.352039 -0.965744
2010-05-19 05:58:24 51°16.777 2°52.96 19.3756 0.061729 0.352033 -1.000568
2010-05-19 05:58:29 51°16.795 2°52.95 19.3976 0.061729 0.352033 -0.965744
2010-05-19 05:58:34 51°16.814 2°52.939 19.4181 0.061729 0.352039 -0.965744
2010-05-19 05:58:39 51°16.832 2°52.929 19.4041 0.061729 0.352039 -0.965744
2010-05-19 05:58:44 51°16.851 2°52.918 19.4017 0.061729 0.352039 -1.000568
2010-05-19 05:58:49 51°16.869 2°52.907 19.4201 0.061729 0.352039 -1.000568
2010-05-19 05:58:54 51°16.887 2°52.896 19.4027 0.061729 0.352045 -1.000568
2010-05-19 05:58:59 51°16.905 2°52.886 19.3786 0.061729 0.352045 -1.000568
2010-05-19 05:59:04 51°16.923 2°52.874 19.3925 0.061729 0.352051 -1.000568
2010-05-19 05:59:09 51°16.942 2°52.863 19.378 0.061729 0.352045 -0.965744
2010-05-19 05:59:14 51°16.96 2°52.851 19.39 0.061729 0.352045 -0.965744
2010-05-19 05:59:19 51°16.978 2°52.84 19.3687 0.061729 0.352045 -1.000568
2010-05-19 05:59:24 51°16.997 2°52.829 19.3963 0.061729 0.352039 -0.965744
2010-05-19 05:59:29 51°17.016 2°52.819 19.3854 0.061729 0.352045 -0.965744
2010-05-19 05:59:34 51°17.035 2°52.809 19.4181 0.061729 0.352039 -0.965744
2010-05-19 05:59:39 51°17.054 2°52.798 19.433 0.061729 0.352039 -0.965744
2010-05-19 05:59:44 51°17.073 2°52.787 19.4164 0.061729 0.352039 -1.000568
2010-05-19 05:59:49 51°17.091 2°52.776 19.3991 0.061729 0.352045 -0.965744
2010-05-19 05:59:54 51°17.11 2°52.764 19.4043 0.061729 0.352045 -0.965744
2010-05-19 05:59:59 51°17.129 2°52.753 19.4079 0.061729 0.352045 -1.000568
2010-05-19 06:00:04 51°17.147 2°52.741 19.3874 0.061729 0.352045 -1.000568
2010-05-19 06:00:09 51°17.166 2°52.73 19.4062 0.061729 0.352045 -1.000568
2010-05-19 06:00:14 51°17.184 2°52.719 19.3924 0.061729 0.352039 -0.965744
2010-05-19 06:00:19 51°17.203 2°52.708 19.4214 0.061729 0.352045 -0.965744
2010-05-19 06:00:24 51°17.221 2°52.697 19.4025 0.061729 0.352039 -1.000568
2010-05-19 06:00:29 51°17.24 2°52.686 19.4032 0.061729 0.352039 -0.965744
2010-05-19 06:00:34 51°17.259 2°52.674 19.4311 0.061729 0.352039 -1.000568
2010-05-19 06:00:39 51°17.277 2°52.663 19.3616 0.061729 0.352039 -1.000568
2010-05-19 06:00:44 51°17.295 2°52.651 19.417 0.061729 0.352039 -0.965744
2010-05-19 06:00:49 51°17.314 2°52.64 19.4074 0.061729 0.352033 -1.000568
2010-05-19 06:00:54 51°17.332 2°52.628 19.3799 0.061729 0.352026 -1.000568
2010-05-19 06:00:59 51°17.351 2°52.616 19.3746 0.061729 0.352026 -1.000568
2010-05-19 06:01:04 51°17.369 2°52.605 19.3705 0.061729 0.352033 -1.000568
2010-05-19 06:01:09 51°17.388 2°52.593 19.3398 0.061729 0.352033 -0.965744
2010-05-19 06:01:14 51°17.406 2°52.582 19.3035 0.061729 0.352033 -0.965744
2010-05-19 06:01:19 51°17.425 2°52.572 19.3969 0.061729 0.352026 -1.000568
2010-05-19 06:01:24 51°17.444 2°52.562 19.3702 0.061729 0.352014 -1.000568
2010-05-19 06:01:29 51°17.463 2°52.554 19.3565 0.061729 0.35202 -1.000568
2010-05-19 06:01:34 51°17.482 2°52.545 19.3267 0.061729 0.35202 -1.000568
2010-05-19 06:01:39 51°17.501 2°52.537 19.3549 0.061729 0.35202 -1.000568
2010-05-19 06:01:44 51°17.521 2°52.532 19.357 0.061729 0.352008 -1.000568
2010-05-19 06:01:49 51°17.541 2°52.526 19.3789 0.061729 0.352014 -1.035392
2010-05-19 06:01:54 51°17.56 2°52.523 19.3805 0.061729 0.352008 -1.000568
2010-05-19 06:01:59 51°17.58 2°52.518 19.3747 0.061729 0.352014 -1.000568
2010-05-19 06:02:04 51°17.6 2°52.515 19.3745 0.061729 0.352008 -1.000568
2010-05-19 06:02:09 51°17.62 2°52.511 19.3912 0.061729 0.352008 -1.000568
2010-05-19 06:02:14 51°17.64 2°52.509 19.4024 0.061729 0.352026 -1.000568
2010-05-19 06:02:19 51°17.66 2°52.507 19.3844 0.061729 0.352014 -1.000568
2010-05-19 06:02:24 51°17.679 2°52.505 19.4026 0.061729 0.352008 -1.000568
2010-05-19 06:02:29 51°17.699 2°52.503 19.3982 0.061729 0.352002 -1.000568
2010-05-19 06:02:34 51°17.719 2°52.501 19.4321 0.061729 0.352008 -1.000568
2010-05-19 06:02:39 51°17.739 2°52.499 19.4041 0.061729 0.352002 -1.000568
2010-05-19 06:02:44 51°17.759 2°52.497 19.3928 0.061729 0.352002 -1.000568
2010-05-19 06:02:49 51°17.779 2°52.494 19.4176 0.061729 0.352002 -0.965744
2010-05-19 06:02:54 51°17.799 2°52.492 19.4149 0.061729 0.351996 -0.965744
2010-05-19 06:02:59 51°17.819 2°52.49 19.4198 0.061729 0.352002 -1.000568
2010-05-19 06:03:04 51°17.839 2°52.488 19.3657 0.061729 0.35199 -0.965744
2010-05-19 06:03:09 51°17.859 2°52.485 19.4151 0.061729 0.35199 -0.965744
2010-05-19 06:03:14 51°17.879 2°52.483 19.3865 0.061729 0.351996 -0.965744
2010-05-19 06:03:19 51°17.899 2°52.481 19.4229 0.061729 0.351978 -0.965744
2010-05-19 06:03:23 51°17.915 2°52.479 19.4268 0.061729 0.351978 -0.965744
2010-05-19 06:03:29 51°17.939 2°52.476 19.4076 0.061729 0.351978 -0.965744
2010-05-19 06:03:34 51°17.959 2°52.474 19.3663 0.061729 0.351978 -0.965744
2010-05-19 06:03:39 51°17.979 2°52.473 19.3632 0.061729 0.351978 -0.965744
2010-05-19 06:03:43 51°17.995 2°52.472 19.3786 0.061729 0.351966 -0.965744
2010-05-19 06:03:49 51°18.019 2°52.471 19.392 0.061729 0.351966 -0.965744
2010-05-19 06:03:54 51°18.039 2°52.471 19.388 0.061729 0.35196 -0.965744
2010-05-19 06:03:59 51°18.059 2°52.471 19.4221 0.061729 0.35196 -0.965744
2010-05-19 06:04:03 51°18.075 2°52.471 19.3976 0.061729 0.351966 -1.000568
2010-05-19 06:04:09 51°18.099 2°52.472 19.4267 0.061729 0.351966 -1.000568
2010-05-19 06:04:14 51°18.119 2°52.472 19.3988 0.061729 0.351954 -1.000568
2010-05-19 06:04:19 51°18.139 2°52.472 19.4084 0.061729 0.351954 -0.965744
2010-05-19 06:04:24 51°18.159 2°52.472 19.3938 0.061729 0.351948 -1.000568
2010-05-19 06:04:29 51°18.179 2°52.472 19.3898 0.061729 0.351942 -0.965744
2010-05-19 06:04:34 51°18.199 2°52.472 19.4161 0.061729 0.351942 -1.000568
2010-05-19 06:04:39 51°18.219 2°52.472 19.4119 0.061729 0.351936 -0.965744
2010-05-19 06:04:44 51°18.239 2°52.472 19.4327 0.061729 0.351936 -0.965744
2010-05-19 06:04:49 51°18.259 2°52.472 19.4101 0.061729 0.351918 -1.000568
2010-05-19 06:04:54 51°18.279 2°52.472 19.4377 0.061729 0.351924 -1.000568
2010-05-19 06:04:59 51°18.3 2°52.472 19.3675 0.061729 0.351918 -0.965744
2010-05-19 06:05:04 51°18.32 2°52.472 19.386 0.061729 0.351924 -0.965744
2010-05-19 06:05:09 51°18.34 2°52.472 19.4031 0.061729 0.351924 -0.965744
2010-05-19 06:05:14 51°18.36 2°52.472 19.4168 0.061729 0.351924 -1.000568
2010-05-19 06:05:19 51°18.38 2°52.472 19.3991 0.061729 0.351924 -1.000568
2010-05-19 06:05:23 51°18.396 2°52.472 19.4039 0.061729 0.351924 -1.000568
2010-05-19 06:05:29 51°18.42 2°52.472 19.4096 0.061729 0.351918 -0.965744
2010-05-19 06:05:34 51°18.44 2°52.471 19.4232 0.061729 0.351924 -0.965744
2010-05-19 06:05:39 51°18.46 2°52.472 19.4062 0.061729 0.351924 -0.965744
2010-05-19 06:05:43 51°18.476 2°52.471 19.4127 0.061729 0.351912 -0.965744
2010-05-19 06:05:49 51°18.5 2°52.472 19.4186 0.061729 0.3519 -0.965744
2010-05-19 06:05:54 51°18.52 2°52.471 19.3728 0.061729 0.351906 -0.965744
2010-05-19 06:05:59 51°18.54 2°52.471 19.3779 0.061729 0.351888 -0.965744
2010-05-19 06:06:03 51°18.556 2°52.471 19.3604 0.061729 0.3519 -0.965744
2010-05-19 06:06:09 51°18.58 2°52.473 19.3249 0.061729 0.3519 -0.965744
2010-05-19 06:06:14 51°18.6 2°52.475 19.3883 0.061729 0.351882 -0.965744
2010-05-19 06:06:19 51°18.621 2°52.479 19.3861 0.061729 0.35187 -0.965744
2010-05-19 06:06:24 51°18.641 2°52.483 19.3835 0.061729 0.35187 -1.000568
2010-05-19 06:06:29 51°18.661 2°52.488 19.4214 0.061729 0.351864 -1.000568
2010-05-19 06:06:34 51°18.681 2°52.492 19.3866 0.061729 0.35187 -1.000568
2010-05-19 06:06:39 51°18.701 2°52.498 19.4014 0.061729 0.351864 -1.000568
2010-05-19 06:06:44 51°18.72 2°52.503 19.4072 0.061729 0.351864 -1.000568
2010-05-19 06:06:49 51°18.74 2°52.51 19.4126 0.061729 0.35187 -1.000568
2010-05-19 06:06:54 51°18.76 2°52.516 19.4108 0.061729 0.351858 -1.000568
2010-05-19 06:06:59 51°18.78 2°52.522 19.4001 0.061729 0.351864 -1.000568
2010-05-19 06:07:04 51°18.8 2°52.529 19.4218 0.061729 0.351858 -0.965744
2010-05-19 06:07:09 51°18.82 2°52.535 19.3883 0.061729 0.351858 -0.965744
2010-05-19 06:07:14 51°18.84 2°52.541 19.4309 0.061729 0.351852 -0.965744
2010-05-19 06:07:19 51°18.86 2°52.547 19.417 0.061729 0.351846 -0.965744
2010-05-19 06:07:24 51°18.88 2°52.553 19.4188 0.061729 0.351852 -0.965744
2010-05-19 06:07:29 51°18.9 2°52.558 19.3914 0.061729 0.35184 -0.965744
2010-05-19 06:07:34 51°18.92 2°52.564 19.4209 0.061729 0.35184 -1.000568
2010-05-19 06:07:39 51°18.939 2°52.57 18.9334 0.061729 0.35184 -1.000568
2010-05-19 06:07:43 51°18.955 2°52.574 15.1117 0.061729 0.35184 -1.000568
2010-05-19 06:07:49 51°18.979 2°52.581 14.4973 0.061729 0.351535 -1.139864
2010-05-19 06:07:54 51°18.999 2°52.587 13.6953 0.061833 0.350429 -0.896096
2010-05-19 06:07:59 51°19.019 2°52.593 13.135 0.061729 0.349125 -0.58268
2010-05-19 06:08:03 51°19.035 2°52.597 12.8146 0.538091 3.340039 0.35757
2010-05-19 06:08:09 51°19.059 2°52.604 12.5384 0.538091 3.340039 0.35757
2010-05-19 06:08:14 51°19.079 2°52.609 12.313 1.884935 12.686223 0.636162
2010-05-19 06:08:19 51°19.098 2°52.615 12.1764 2.549645 17.803677 1.82018
2010-05-19 06:08:23 51°19.114 2°52.619 12.1414 3.419919 25.368092 2.272893
2010-05-19 06:08:29 51°19.138 2°52.626 12.1071 3.615605 27.696884 2.551485
2010-05-19 06:08:34 51°19.158 2°52.632 11.9865 3.781605 29.976256 2.830078
2010-05-19 06:08:39 51°19.178 2°52.637 11.9888 3.781605 29.976256 2.830078
2010-05-19 06:08:44 51°19.198 2°52.642 11.9536 3.772755 30.526351 3.039022
2010-05-19 06:08:49 51°19.218 2°52.648 11.9339 3.742496 30.801622 3.247966
2010-05-19 06:08:54 51°19.238 2°52.653 11.9034 3.726155 31.03419 3.317614
2010-05-19 06:08:59 51°19.258 2°52.658 11.9173 3.709392 31.220202 3.28279
2010-05-19 06:09:04 51°19.278 2°52.664 11.8484 3.693155 31.245615 3.28279
2010-05-19 06:09:09 51°19.298 2°52.668 11.9053 3.693155 31.245615 3.28279
2010-05-19 06:09:14 51°19.318 2°52.674 11.8705 3.673542 31.199522 3.28279
2010-05-19 06:09:19 51°19.338 2°52.679 11.8612 3.663104 31.214198 3.213142
2010-05-19 06:09:24 51°19.358 2°52.684 11.8076 3.649291 31.170966 3.247966
2010-05-19 06:09:29 51°19.378 2°52.69 11.8635 3.642965 31.162955 3.213142
2010-05-19 06:09:34 51°19.398 2°52.695 11.7953 3.632632 31.110281 3.213142
2010-05-19 06:09:39 51°19.418 2°52.7 11.8207 3.632632 31.110281 3.213142
2010-05-19 06:09:43 51°19.434 2°52.704 11.8069 3.627044 31.089014 3.178318
2010-05-19 06:09:49 51°19.458 2°52.711 11.7784 3.620507 31.06324 3.10867
2010-05-19 06:09:54 51°19.478 2°52.716 11.7661 3.621034 31.078056 3.10867
2010-05-19 06:09:59 51°19.497 2°52.722 11.7519 3.616395 31.063182 3.039022
2010-05-19 06:10:03 51°19.514 2°52.726 11.7433 3.615341 31.0688 2.969374
2010-05-19 06:10:09 51°19.537 2°52.733 11.763 3.615341 31.0688 2.969374
2010-05-19 06:10:14 51°19.557 2°52.737 11.7603 3.610912 31.04285 2.93455
2010-05-19 06:10:19 51°19.577 2°52.743 11.734 3.611967 31.068621 2.830078
2010-05-19 06:10:23 51°19.593 2°52.747 11.7417 3.597205 30.949758 2.864902
2010-05-19 06:10:29 51°19.617 2°52.754 11.7463 3.607539 31.062951 2.795254
2010-05-19 06:10:34 51°19.637 2°52.759 11.7437 3.604481 31.050731 2.725606
2010-05-19 06:10:39 51°19.656 2°52.764 11.7439 3.604481 31.050731 2.725606
2010-05-19 06:10:43 51°19.672 2°52.769 11.7677 3.606696 31.085047 2.690782
2010-05-19 06:10:49 51°19.696 2°52.774 11.7475 3.606485 31.089594 2.621133
2010-05-19 06:10:54 51°19.716 2°52.78 11.7569 3.60058 31.033704 2.551485
2010-05-19 06:10:59 51°19.736 2°52.785 11.7497 3.601846 31.060911 2.481837
2010-05-19 06:11:03 51°19.752 2°52.79 11.7335 3.59921 31.039594 2.412189
2010-05-19 06:11:09 51°19.775 2°52.796 11.7484 3.59921 31.039594 2.412189
2010-05-19 06:11:14 51°19.795 2°52.802 11.7531 3.593305 30.994824 2.342541
2010-05-19 06:11:19 51°19.815 2°52.807 11.7765 3.596785 31.030136 2.307717
2010-05-19 06:11:24 51°19.835 2°52.812 11.7741 3.596469 31.028417 2.307717
2010-05-19 06:11:29 51°19.854 2°52.818 11.7666 3.598683 31.048326 2.238069
2010-05-19 06:11:34 51°19.874 2°52.823 11.7654 3.594465 31.006594 2.238069
2010-05-19 06:11:39 51°19.894 2°52.828 11.7787 3.594465 31.006594 2.238069
2010-05-19 06:11:44 51°19.913 2°52.833 11.7842 3.595731 31.027249 2.203245
2010-05-19 06:11:49 51°19.933 2°52.839 11.8012 3.596785 31.039326 2.203245
2010-05-19 06:11:54 51°19.953 2°52.844 11.7952 3.596785 31.03867 2.133597
2010-05-19 06:11:59 51°19.973 2°52.849 11.789 3.59689 31.034428 2.168421
2010-05-19 06:12:04 51°19.992 2°52.854 11.7974 3.592356 30.986387 2.133597
2010-05-19 06:12:09 51°20.012 2°52.859 11.8062 3.596469 31.027104 2.133597
2010-05-19 06:12:14 51°20.031 2°52.864 11.8072 3.596469 31.027104 2.133597
2010-05-19 06:12:19 51°20.051 2°52.869 11.814 3.595414 31.015687 2.063949
2010-05-19 06:12:24 51°20.071 2°52.874 11.8148 3.594465 31.005282 2.029124
2010-05-19 06:12:29 51°20.09 2°52.88 11.8214 3.594254 30.999329 2.063949
2010-05-19 06:12:34 51°20.11 2°52.885 11.8296 3.593516 30.984396 2.029124
2010-05-19 06:12:39 51°20.13 2°52.89 11.8297 3.593516 30.984396 2.029124
2010-05-19 06:12:44 51°20.149 2°52.895 11.8153 3.5932 30.982676 2.029124
2010-05-19 06:12:49 51°20.169 2°52.899 11.831 3.592356 30.970669 1.9943
2010-05-19 06:12:54 51°20.188 2°52.904 11.8286 3.591934 30.96663 1.9943
2010-05-19 06:12:59 51°20.208 2°52.91 11.8114 3.585397 30.900769 1.959476
2010-05-19 06:13:04 51°20.227 2°52.914 11.8053 3.587717 30.921016 1.924652
2010-05-19 06:13:09 51°20.247 2°52.92 11.8135 3.587717 30.921016 1.924652
2010-05-19 06:13:14 51°20.266 2°52.925 11.8315 3.586557 30.904688 1.889828
2010-05-19 06:13:19 51°20.286 2°52.93 11.826 3.584659 30.879348 1.855004
2010-05-19 06:13:24 51°20.305 2°52.934 11.8232 3.581917 30.854423 1.855004
2010-05-19 06:13:29 51°20.325 2°52.94 11.8246 3.584975 30.883027 1.785356
2010-05-19 06:13:34 51°20.344 2°52.944 11.8328 3.584975 30.887594 1.785356
2010-05-19 06:13:39 51°20.364 2°52.95 11.8273 3.584975 30.887594 1.785356
2010-05-19 06:13:44 51°20.383 2°52.955 11.825 3.582023 30.862603 1.82018
2010-05-19 06:13:49 51°20.402 2°52.96 11.8271 3.585397 30.897504 1.82018
2010-05-19 06:13:54 51°20.421 2°52.966 11.8347 3.585397 30.896199 1.82018
2010-05-19 06:13:59 51°20.441 2°52.973 11.8384 3.576962 30.816129 1.855004
2010-05-19 06:14:04 51°20.46 2°52.98 11.8409 3.579176 30.836664 1.82018
2010-05-19 06:14:09 51°20.479 2°52.987 11.8441 3.579176 30.836664 1.82018
2010-05-19 06:14:14 51°20.499 2°52.994 11.8385 3.582445 30.864031 1.855004
2010-05-19 06:14:19 51°20.517 2°53.003 11.847 3.58255 30.863735 1.785356
2010-05-19 06:14:23 51°20.533 2°53.009 11.8441 3.576013 30.799892 1.82018
2010-05-19 06:14:29 51°20.556 2°53.019 11.8381 3.583499 30.872816 1.855004
2010-05-19 06:14:34 51°20.575 2°53.027 11.8673 3.581496 30.852995 1.855004
2010-05-19 06:14:39 51°20.594 2°53.035 11.8606 3.581496 30.852995 1.855004
2010-05-19 06:14:44 51°20.613 2°53.043 11.8452 3.579387 30.831517 1.889828
2010-05-19 06:14:49 51°20.632 2°53.052 11.8612 3.580019 30.833662 1.855004
2010-05-19 06:14:54 51°20.651 2°53.06 11.8462 3.580441 30.833789 1.889828
2010-05-19 06:14:59 51°20.67 2°53.067 11.8497 3.577383 30.806496 1.924652
2010-05-19 06:15:04 51°20.689 2°53.076 11.8459 3.580968 30.838831 1.959476
2010-05-19 06:15:09 51°20.708 2°53.084 11.85 3.580968 30.838831 1.959476
2010-05-19 06:15:14 51°20.727 2°53.092 11.8407 3.579598 30.827023 1.924652
2010-05-19 06:15:19 51°20.747 2°53.1 11.8426 3.578332 30.811018 2.063949
2010-05-19 06:15:24 51°20.766 2°53.109 11.8413 3.577594 30.805911 2.063949
2010-05-19 06:15:29 51°20.785 2°53.117 11.8467 3.577172 30.801228 2.098773
2010-05-19 06:15:34 51°20.804 2°53.125 11.8387 3.576118 30.791795 2.133597
2010-05-19 06:15:39 51°20.823 2°53.133 11.8425 3.576118 30.791795 2.133597
2010-05-19 06:15:44 51°20.842 2°53.141 11.8421 3.578543 30.815637 2.203245
2010-05-19 06:15:49 51°20.861 2°53.149 11.8472 3.57306 30.765805 2.238069
2010-05-19 06:15:54 51°20.88 2°53.157 11.8533 3.577278 30.805488 2.307717
2010-05-19 06:15:59 51°20.899 2°53.165 11.8559 3.577067 30.805423 2.377365
2010-05-19 06:16:04 51°20.919 2°53.173 11.8468 3.577067 30.806073 2.412189
2010-05-19 06:16:09 51°20.938 2°53.181 11.8379 3.577067 30.806073 2.412189
2010-05-19 06:16:14 51°20.957 2°53.189 11.8269 3.57538 30.791889 2.447013
2010-05-19 06:16:19 51°20.976 2°53.196 11.8205 3.576751 30.802397 2.516661
2010-05-19 06:16:24 51°20.995 2°53.204 11.8173 3.574326 30.782455 2.551485
2010-05-19 06:16:29 51°21.015 2°53.212 11.8014 3.575486 30.792247 2.655957
2010-05-19 06:16:34 51°21.034 2°53.22 11.787 3.569686 30.733544 2.690782
2010-05-19 06:16:39 51°21.053 2°53.227 11.8054 3.569686 30.733544 2.690782
2010-05-19 06:16:43 51°21.069 2°53.233 11.7838 3.573904 30.774521 2.795254
2010-05-19 06:16:49 51°21.092 2°53.243 11.7699 3.567999 30.720659 2.830078
2010-05-19 06:16:54 51°21.111 2°53.251 11.7748 3.569687 30.743283 2.969374
2010-05-19 06:16:59 51°21.13 2°53.259 11.7568 3.565785 30.71441 3.10867
2010-05-19 06:17:03 51°21.146 2°53.265 11.7643 3.565258 30.714559 3.28279
2010-05-19 06:17:09 51°21.169 2°53.275 11.7485 3.565258 30.714559 3.28279
2010-05-19 06:17:14 51°21.188 2°53.283 11.7459 3.56083 30.68063 3.456911
2010-05-19 06:17:19 51°21.208 2°53.291 11.742 3.566313 30.73959 3.631031
2010-05-19 06:17:24 51°21.227 2°53.299 11.7444 3.564626 30.727992 3.735503
2010-05-19 06:17:29 51°21.246 2°53.307 11.7427 3.564099 30.730745 3.805151
2010-05-19 06:17:34 51°21.265 2°53.315 11.7309 3.558827 30.686767 3.909623
2010-05-19 06:17:39 51°21.285 2°53.324 11.729 3.558827 30.686767 3.909623
2010-05-19 06:17:44 51°21.303 2°53.334 11.7172 3.559249 30.6999 3.944447
2010-05-19 06:17:49 51°21.323 2°53.343 11.7233 3.556297 30.674874 3.874799
2010-05-19 06:17:54 51°21.341 2°53.355 11.7201 3.556719 30.68476 3.770327
2010-05-19 06:17:59 51°21.36 2°53.366 11.7131 3.556719 30.688659 3.665855
2010-05-19 06:18:04 51°21.379 2°53.378 11.708 3.553029 30.66045 3.387263
2010-05-19 06:18:09 51°21.398 2°53.389 11.7115 3.553029 30.66045 3.387263
2010-05-19 06:18:14 51°21.416 2°53.402 11.7004 3.555032 30.682244 3.317614
2010-05-19 06:18:19 51°21.434 2°53.415 11.6814 3.549549 30.632956 3.143494
2010-05-19 06:18:24 51°21.453 2°53.429 11.6836 3.547019 30.613251 3.073846
2010-05-19 06:18:29 51°21.47 2°53.443 11.6834 3.554294 30.685574 2.969374
2010-05-19 06:18:34 51°21.489 2°53.457 11.6786 3.555243 30.697923 2.93455
2010-05-19 06:18:39 51°21.507 2°53.472 11.6818 3.555243 30.697923 2.93455
2010-05-19 06:18:44 51°21.524 2°53.487 11.6792 3.555032 30.701108 2.830078
2010-05-19 06:18:49 51°21.542 2°53.502 11.6678 3.550393 30.660528 2.76043
2010-05-19 06:18:54 51°21.56 2°53.516 11.666 3.551237 30.672518 2.655957
2010-05-19 06:18:59 51°21.578 2°53.53 11.6667 3.552186 30.69073 2.621133
2010-05-19 06:19:04 51°21.595 2°53.545 11.661 3.55071 30.681777 2.586309
2010-05-19 06:19:09 51°21.613 2°53.559 11.6615 3.549655 30.674265 2.586309
2010-05-19 06:19:14 51°21.631 2°53.574 11.6621 3.549655 30.674265 2.586309
2010-05-19 06:19:19 51°21.649 2°53.589 11.6686 3.552397 30.70513 2.481837
2010-05-19 06:19:24 51°21.667 2°53.603 11.6587 3.55187 30.70398 2.447013
2010-05-19 06:19:29 51°21.685 2°53.618 11.6575 3.550394 30.693071 2.447013
2010-05-19 06:19:34 51°21.703 2°53.633 11.6597 3.55071 30.700669 2.412189
2010-05-19 06:19:39 51°21.721 2°53.647 11.6588 3.55071 30.700669 2.412189
2010-05-19 06:19:44 51°21.739 2°53.661 11.6623 3.543857 30.637489 2.412189
2010-05-19 06:19:49 51°21.757 2°53.676 11.6481 3.551132 30.710587 2.377365
2010-05-19 06:19:54 51°21.775 2°53.69 11.652 3.549234 30.693016 2.377365
2010-05-19 06:19:59 51°21.793 2°53.705 11.6494 3.549129 30.692004 2.342541
2010-05-19 06:20:04 51°21.811 2°53.719 11.6503 3.547653 30.681089 2.342541
2010-05-19 06:20:09 51°21.829 2°53.734 11.6476 3.547653 30.681089 2.342541
2010-05-19 06:20:14 51°21.847 2°53.748 11.644 3.548812 30.69353 2.307717
2010-05-19 06:20:19 51°21.865 2°53.762 11.6421 3.550183 30.70604 2.272893
2010-05-19 06:20:24 51°21.883 2°53.777 11.6453 3.548496 30.692448 2.238069
2010-05-19 06:20:29 51°21.901 2°53.791 11.6492 3.547125 30.681893 2.238069
2010-05-19 06:20:34 51°21.919 2°53.805 11.6358 3.550921 30.719001 2.203245
2010-05-19 06:20:39 51°21.937 2°53.819 11.6275 3.550921 30.719001 2.203245
2010-05-19 06:20:44 51°21.955 2°53.833 11.6332 3.549867 30.713441 2.168421
2010-05-19 06:20:49 51°21.973 2°53.847 11.6254 3.549972 30.711191 2.133597
2010-05-19 06:20:54 51°21.991 2°53.862 11.6326 3.549972 30.715107 2.098773
2010-05-19 06:20:59 51°22.009 2°53.876 11.6127 3.544068 30.662954 2.133597
2010-05-19 06:21:03 51°22.023 2°53.887 11.6168 3.550078 30.721342 2.133597
2010-05-19 06:21:09 51°22.045 2°53.904 11.604 3.548496 30.705494 2.168421
2010-05-19 06:21:14 51°22.063 2°53.918 11.6009 3.548496 30.705494 2.168421
2010-05-19 06:21:19 51°22.081 2°53.932 11.6143 3.546704 30.692189 2.238069
2010-05-19 06:21:23 51°22.095 2°53.943 11.6023 3.543436 30.664046 2.238069
2010-05-19 06:21:29 51°22.117 2°53.958 11.5876 3.548602 30.7163 2.168421
2010-05-19 06:21:34 51°22.136 2°53.971 11.5887 3.54934 30.7247 2.238069
2010-05-19 06:21:39 51°22.154 2°53.982 11.5825 3.54934 30.7247 2.238069
2010-05-19 06:21:43 51°22.169 2°53.991 11.587 3.548496 30.721819 2.203245
2010-05-19 06:21:49 51°22.192 2°54.004 11.5705 3.543014 30.677604 2.203245
2010-05-19 06:21:54 51°22.211 2°54.014 11.567 3.541011 30.659652 2.133597
2010-05-19 06:21:59 51°22.23 2°54.023 11.5714 3.544701 30.698393 2.063949
2010-05-19 06:22:04 51°22.25 2°54.032 11.5778 3.546072 30.715493 2.063949
2010-05-19 06:22:09 51°22.269 2°54.039 11.5694 3.546072 30.715493 2.063949
2010-05-19 06:22:14 51°22.288 2°54.048 11.5688 3.546494 30.72478 2.098773
2010-05-19 06:22:19 51°22.308 2°54.055 11.5586 3.53827 30.651561 2.063949
2010-05-19 06:22:24 51°22.327 2°54.063 11.5552 3.546915 30.736687 1.9943
2010-05-19 06:22:29 51°22.347 2°54.07 11.5568 3.546388 30.738159 1.959476
2010-05-19 06:22:34 51°22.367 2°54.077 11.562 3.546072 30.737734 1.9943
2010-05-19 06:22:39 51°22.387 2°54.081 11.5617 3.545756 30.739272 1.959476
2010-05-19 06:22:44 51°22.407 2°54.087 11.557 3.545756 30.739272 1.959476
2010-05-19 06:22:49 51°22.426 2°54.091 11.5627 3.545545 30.736588 1.889828
2010-05-19 06:22:54 51°22.446 2°54.095 11.5604 3.526462 30.556238 1.959476
2010-05-19 06:22:59 51°22.466 2°54.098 11.5587 3.545123 30.739731 1.889828
2010-05-19 06:23:03 51°22.482 2°54.101 11.5612 3.545229 30.745332 1.924652
2010-05-19 06:23:09 51°22.506 2°54.104 11.5674 3.545229 30.745332 1.924652
2010-05-19 06:23:14 51°22.526 2°54.107 11.566 3.545123 30.743661 1.82018
2010-05-19 06:23:19 51°22.546 2°54.109 11.5666 3.544491 30.739536 1.82018
2010-05-19 06:23:23 51°22.562 2°54.111 11.574 3.544912 30.743596 1.889828
2010-05-19 06:23:29 51°22.586 2°54.114 11.569 3.544807 30.742581 1.785356
2010-05-19 06:23:34 51°22.606 2°54.117 11.5695 3.544702 30.741566 1.785356
2010-05-19 06:23:39 51°22.626 2°54.119 11.5813 3.544702 30.741566 1.785356
2010-05-19 06:23:43 51°22.642 2°54.12 11.5768 3.545018 30.744612 1.82018
2010-05-19 06:23:49 51°22.666 2°54.123 11.5753 3.544385 30.737865 1.82018
2010-05-19 06:23:54 51°22.686 2°54.126 11.5767 3.545229 30.744021 1.82018
2010-05-19 06:23:59 51°22.706 2°54.128 11.5626 3.545545 30.745757 1.785356
2010-05-19 06:24:03 51°22.722 2°54.13 11.5688 3.544596 30.736621 1.82018
2010-05-19 06:24:09 51°22.746 2°54.133 11.5763 3.544596 30.736621 1.82018
2010-05-19 06:24:14 51°22.766 2°54.136 11.5674 3.54544 30.742121 1.855004
2010-05-19 06:24:19 51°22.786 2°54.138 11.5606 3.544702 30.735016 1.82018
2010-05-19 06:24:23 51°22.803 2°54.141 11.5635 3.545018 30.737406 1.750532
2010-05-19 06:24:29 51°22.827 2°54.143 11.5601 3.544596 30.730728 1.750532
2010-05-19 06:24:34 51°22.847 2°54.145 11.5641 3.543858 30.726896 1.750532
2010-05-19 06:24:39 51°22.867 2°54.148 11.5529 3.543964 30.73053 1.750532
2010-05-19 06:24:43 51°22.883 2°54.15 11.5536 3.543964 30.73053 1.750532
2010-05-19 06:24:49 51°22.907 2°54.154 11.5423 3.543858 30.728206 1.785356
2010-05-19 06:24:54 51°22.927 2°54.157 11.5378 3.54312 30.723065 1.785356
2010-05-19 06:24:59 51°22.947 2°54.16 11.5262 3.543753 30.732429 1.785356
2010-05-19 06:25:04 51°22.968 2°54.163 11.5349 3.543331 30.730988 1.750532
2010-05-19 06:25:09 51°22.988 2°54.167 11.5304 3.543331 30.730988 1.750532
2010-05-19 06:25:14 51°23.008 2°54.169 11.5301 3.54312 30.729613 1.785356
2010-05-19 06:25:19 51°23.028 2°54.173 11.528 3.543858 30.739995 1.715708
2010-05-19 06:25:23 51°23.044 2°54.175 11.5314 3.543647 30.73993 1.715708
2010-05-19 06:25:29 51°23.068 2°54.18 11.5273 3.543437 30.743142 1.680884
2010-05-19 06:25:34 51°23.088 2°54.183 11.5264 3.543015 30.744324 1.715708
2010-05-19 06:25:39 51°23.109 2°54.186 11.5291 3.543015 30.744324 1.715708
2010-05-19 06:25:44 51°23.129 2°54.19 11.5293 3.543437 30.753634 1.64606
2010-05-19 06:25:49 51°23.149 2°54.193 11.5318 3.542382 30.748066 1.611236
2010-05-19 06:25:54 51°23.169 2°54.196 11.5308 3.543015 30.755475 1.576412
2010-05-19 06:25:59 51°23.19 2°54.199 11.5242 3.542699 30.753082 1.506764
2010-05-19 06:26:04 51°23.21 2°54.203 11.5351 3.54291 30.753802 1.47194
2010-05-19 06:26:09 51°23.23 2°54.206 11.5313 3.54291 30.753802 1.47194
2010-05-19 06:26:14 51°23.25 2°54.21 11.5341 3.54175 30.747217 1.367467
2010-05-19 06:26:19 51°23.271 2°54.213 11.5355 3.541539 30.746497 1.367467
2010-05-19 06:26:24 51°23.291 2°54.216 11.5385 3.542277 30.751642 1.332643
2010-05-19 06:26:29 51°23.311 2°54.219 11.5284 3.542066 30.752234 1.332643
2010-05-19 06:26:34 51°23.331 2°54.222 11.5188 3.541855 30.747577 1.297819
2010-05-19 06:26:39 51°23.352 2°54.225 11.5253 3.541855 30.747577 1.297819
2010-05-19 06:26:44 51°23.372 2°54.229 11.5194 3.541117 30.742432 1.262995
2010-05-19 06:26:49 51°23.392 2°54.232 11.5182 3.540485 30.735678 1.262995
2010-05-19 06:26:54 51°23.412 2°54.236 11.5162 3.540485 30.735023 1.262995
2010-05-19 06:26:59 51°23.433 2°54.239 11.5036 3.541855 30.748233 1.262995
2010-05-19 06:27:04 51°23.453 2°54.243 11.498 3.543015 30.758756 1.228171
2010-05-19 06:27:09 51°23.473 2°54.247 11.4939 3.543015 30.758756 1.228171
2010-05-19 06:27:14 51°23.493 2°54.25 11.482 3.543648 30.767479 1.228171
2010-05-19 06:27:19 51°23.514 2°54.254 11.4736 3.543753 30.771779 1.228171
2010-05-19 06:27:24 51°23.534 2°54.258 11.4732 3.544808 30.783258 1.262995
2010-05-19 06:27:29 51°23.554 2°54.261 11.4683 3.545335 30.791627 1.297819
2010-05-19 06:27:34 51°23.575 2°54.264 11.4637 3.545757 30.795037 1.297819
2010-05-19 06:27:39 51°23.595 2°54.268 11.458 3.545757 30.795037 1.297819
2010-05-19 06:27:44 51°23.615 2°54.271 11.4715 3.546706 30.811422 1.367467
2010-05-19 06:27:49 51°23.635 2°54.274 11.4561 3.547655 30.827816 1.437116
2010-05-19 06:27:54 51°23.655 2°54.277 11.4574 3.548498 30.840565 1.47194
2010-05-19 06:27:59 51°23.675 2°54.28 11.4435 3.549553 30.859969 1.506764
2010-05-19 06:28:03 51°23.691 2°54.282 11.4425 3.550185 30.871353 1.47194
2010-05-19 06:28:09 51°23.715 2°54.287 11.4291 3.550818 30.881422 1.506764
2010-05-19 06:28:14 51°23.735 2°54.29 11.427 3.550818 30.881422 1.506764
2010-05-19 06:28:19 51°23.755 2°54.294 11.4184 3.550713 30.883044 1.47194
2010-05-19 06:28:24 51°23.775 2°54.296 11.424 3.551661 30.896172 1.506764
2010-05-19 06:28:29 51°23.796 2°54.3 11.4202 3.552083 30.904211 1.506764
2010-05-19 06:28:34 51°23.816 2°54.302 11.4021 3.552927 30.915665 1.47194
2010-05-19 06:28:39 51°23.836 2°54.304 11.4067 3.552927 30.915665 1.47194
2010-05-19 06:28:44 51°23.856 2°54.305 11.4016 3.553665 30.926765 1.47194
2010-05-19 06:28:49 51°23.876 2°54.307 11.4003 3.553454 30.93002 1.437116
2010-05-19 06:28:54 51°23.896 2°54.309 11.3893 3.554614 30.951164 1.437116
2010-05-19 06:28:59 51°23.916 2°54.31 11.3965 3.55472 30.955496 1.437116
2010-05-19 06:29:04 51°23.937 2°54.311 11.4012 3.555141 30.963551 1.47194
2010-05-19 06:29:09 51°23.957 2°54.312 11.3915 3.555141 30.963551 1.47194
2010-05-19 06:29:14 51°23.977 2°54.313 11.3901 3.555352 30.969568 1.437116
2010-05-19 06:29:19 51°23.997 2°54.315 11.3838 3.555458 30.976557 1.47194
2010-05-19 06:29:24 51°24.017 2°54.315 11.3833 3.555563 30.982222 1.437116
2010-05-19 06:29:29 51°24.037 2°54.318 11.3933 3.555142 30.984114 1.47194
2010-05-19 06:29:34 51°24.057 2°54.319 11.3939 3.554614 30.981667 1.437116
2010-05-19 06:29:39 51°24.078 2°54.321 11.3897 3.554614 30.981667 1.437116
2010-05-19 06:29:44 51°24.098 2°54.322 11.3877 3.554404 30.978299 1.541588
2010-05-19 06:29:49 51°24.117 2°54.323 11.3736 3.554509 30.983302 1.506764
2010-05-19 06:29:54 51°24.137 2°54.324 11.3781 3.555353 30.993459 1.541588
2010-05-19 06:29:59 51°24.157 2°54.325 11.3671 3.555564 30.999487 1.64606
2010-05-19 06:30:03 51°24.173 2°54.327 11.3727 3.555458 30.998466 1.64606
2010-05-19 06:30:09 51°24.197 2°54.328 11.3824 3.554087 30.986524 1.680884
2010-05-19 06:30:14 51°24.217 2°54.33 11.371 3.554087 30.986524 1.680884
2010-05-19 06:30:19 51°24.237 2°54.331 11.3768 3.555669 31.001836 1.680884
2010-05-19 06:30:23 51°24.253 2°54.333 11.3831 3.555142 30.997396 1.715708
2010-05-19 06:30:29 51°24.277 2°54.335 11.3767 3.555564 31.002809 1.680884
2010-05-19 06:30:34 51°24.297 2°54.336 11.372 3.555669 31.008483 1.680884
2010-05-19 06:30:39 51°24.318 2°54.337 11.3673 3.555669 31.008483 1.680884
2010-05-19 06:30:43 51°24.334 2°54.339 11.3724 3.555564 31.012116 1.611236
2010-05-19 06:30:49 51°24.358 2°54.34 11.3617 3.55588 31.01385 1.611236
2010-05-19 06:30:54 51°24.378 2°54.342 11.3637 3.555247 31.008387 1.611236
2010-05-19 06:30:59 51°24.398 2°54.343 11.3562 3.555458 31.009765 1.611236
2010-05-19 06:31:03 51°24.414 2°54.344 11.3643 3.556618 31.022994 1.611236
2010-05-19 06:31:09 51°24.438 2°54.345 11.3558 3.556618 31.022994 1.611236
2010-05-19 06:31:14 51°24.458 2°54.347 11.3519 3.556618 31.022994 1.576412
2010-05-19 06:31:19 51°24.478 2°54.348 11.3443 3.555037 31.010335 1.541588
2010-05-19 06:31:24 51°24.498 2°54.35 11.3436 3.555353 31.015394 1.506764
2010-05-19 06:31:29 51°24.518 2°54.35 11.3455 3.555775 31.023472 1.506764
2010-05-19 06:31:34 51°24.538 2°54.352 11.3521 3.556407 31.030267 1.437116
2010-05-19 06:31:39 51°24.558 2°54.353 11.3526 3.556302 31.029911 1.402292
2010-05-19 06:31:44 51°24.579 2°54.355 11.349 3.556302 31.029911 1.402292
2010-05-19 06:31:49 51°24.599 2°54.356 11.3352 3.555669 31.026444 1.332643
2010-05-19 06:31:54 51°24.619 2°54.358 11.3413 3.553982 31.012093 1.367467
2010-05-19 06:31:59 51°24.639 2°54.36 11.3381 3.55588 31.033814 1.332643
2010-05-19 06:32:04 51°24.659 2°54.361 11.337 3.554721 31.026568 1.297819
2010-05-19 06:32:09 51°24.679 2°54.362 11.3324 3.554721 31.026568 1.297819
2010-05-19 06:32:14 51°24.7 2°54.363 11.3369 3.553666 31.018345 1.332643
2010-05-19 06:32:19 51°24.72 2°54.365 11.3293 3.554615 31.026212 1.297819
2010-05-19 06:32:23 51°24.736 2°54.366 11.336 3.554615 31.025546 1.332643
2010-05-19 06:32:29 51°24.761 2°54.368 11.3263 3.555353 31.035364 1.332643
2010-05-19 06:32:34 51°24.781 2°54.369 11.3217 3.554299 31.029139 1.297819
2010-05-19 06:32:39 51°24.801 2°54.371 11.3259 3.554299 31.029139 1.297819
2010-05-19 06:32:43 51°24.818 2°54.372 11.318 3.554931 31.036605 1.297819
2010-05-19 06:32:49 51°24.842 2°54.374 11.3132 3.555353 31.043359 1.297819
2010-05-19 06:32:54 51°24.862 2°54.375 11.3076 3.555142 31.041315 1.262995
2010-05-19 06:32:59 51°24.883 2°54.376 11.3058 3.553455 31.028289 1.297819
2010-05-19 06:33:03 51°24.899 2°54.377 11.3086 3.554194 31.038778 1.262995
2010-05-19 06:33:09 51°24.923 2°54.378 11.3009 3.554194 31.038778 1.262995
2010-05-19 06:33:14 51°24.944 2°54.38 11.3014 3.556091 31.057851 1.262995
2010-05-19 06:33:19 51°24.964 2°54.381 11.3 3.555037 31.050292 1.228171
2010-05-19 06:33:24 51°24.985 2°54.382 11.3022 3.556935 31.072038 1.262995
2010-05-19 06:33:29 51°25.005 2°54.383 11.3026 3.557146 31.077421 1.262995
2010-05-19 06:33:34 51°25.025 2°54.384 11.3037 3.556724 31.077335 1.228171
2010-05-19 06:33:39 51°25.045 2°54.385 11.3001 3.556724 31.077335 1.228171
2010-05-19 06:33:44 51°25.065 2°54.386 11.2993 3.556724 31.079339 1.193347
2010-05-19 06:33:49 51°25.086 2°54.387 11.294 3.554932 31.06595 1.193347
2010-05-19 06:33:54 51°25.106 2°54.389 11.291 3.557462 31.092514 1.123699
2010-05-19 06:33:59 51°25.126 2°54.39 11.2896 3.556092 31.07921 1.158523
2010-05-19 06:34:04 51°25.146 2°54.392 11.2867 3.557146 31.093453 1.088875
2010-05-19 06:34:09 51°25.167 2°54.393 11.2866 3.557146 31.093453 1.088875
2010-05-19 06:34:14 51°25.187 2°54.395 11.2877 3.556724 31.087355 1.088875
2010-05-19 06:34:19 51°25.207 2°54.396 11.2794 3.554405 31.06484 1.158523
2010-05-19 06:34:23 51°25.224 2°54.397 11.2794 3.557462 31.095187 1.158523
2010-05-19 06:34:29 51°25.248 2°54.399 11.269 3.557041 31.09243 1.193347
2010-05-19 06:34:34 51°25.268 2°54.399 11.2682 3.55314 31.057901 1.193347